Wetterdaten: Samstag, 15.03.2014
Datum Zeit Temp. Aussen +5cm Feuchte Auss Luftdruck Regen Sonnenschein Regendauer UV Solar Windben
15.03.2014 00:00 9,2 C 7,2 C 78 % 1020,3 hPa 0,0 l/m 0 min 0 min 0,0 UV-I 0 W/m 15,4 km/h (3 Bft)
15.03.2014 00:02 9,3 C 7,2 C 77 % 1020,2 hPa 0,0 l/m 0 min 0 min 0,0 UV-I 0 W/m 15,4 km/h (3 Bft)
15.03.2014 00:06 9,4 C 7,8 C 78 % 1020,1 hPa 0,0 l/m 0 min 0 min 0,0 UV-I 0 W/m 23,2 km/h (4 Bft)
15.03.2014 00:08 9,4 C 7,8 C 77 % 1020,2 hPa 0,0 l/m 0 min 0 min 0,0 UV-I 0 W/m 2,6 km/h (1 Bft)
15.03.2014 00:10 9,4 C 7,8 C 77 % 1019,9 hPa 0,0 l/m 0 min 0 min 0,0 UV-I 0 W/m 5,1 km/h (1 Bft)
15.03.2014 00:12 9,4 C 7,8 C 78 % 1019,8 hPa 0,0 l/m 0 min 0 min 0,0 UV-I 0 W/m 7,7 km/h (2 Bft)
15.03.2014 00:14 9,4 C 7,8 C 78 % 1019,7 hPa 0,0 l/m 0 min 0 min 0,0 UV-I 0 W/m 15,4 km/h (3 Bft)
15.03.2014 00:16 9,5 C 7,8 C 78 % 1019,7 hPa 0,0 l/m 0 min 0 min 0,0 UV-I 0 W/m 12,9 km/h (3 Bft)
15.03.2014 00:18 9,5 C 7,8 C 78 % 1019,8 hPa 0,0 l/m 0 min 0 min 0,0 UV-I 0 W/m 33,5 km/h (5 Bft)
15.03.2014 00:20 9,6 C 7,8 C 78 % 1019,8 hPa 0,0 l/m 0 min 0 min 0,0 UV-I 0 W/m 10,3 km/h (2 Bft)
15.03.2014 00:22 9,6 C 7,8 C 78 % 1019,9 hPa 0,0 l/m 0 min 0 min 0,0 UV-I 0 W/m 5,1 km/h (1 Bft)
15.03.2014 00:24 9,6 C 7,8 C 78 % 1020,0 hPa 0,0 l/m 0 min 0 min 0,0 UV-I 0 W/m 5,1 km/h (1 Bft)
15.03.2014 00:26 9,5 C 7,8 C 78 % 1019,9 hPa 0,0 l/m 0 min 0 min 0,0 UV-I 0 W/m 10,3 km/h (2 Bft)
15.03.2014 00:28 9,5 C 7,8 C 78 % 1019,8 hPa 0,0 l/m 0 min 0 min 0,0 UV-I 0 W/m 0,0 km/h (0 Bft)
15.03.2014 00:30 9,5 C 7,8 C 78 % 1019,8 hPa 0,0 l/m 0 min 0 min 0,0 UV-I 0 W/m 12,9 km/h (3 Bft)
15.03.2014 00:32 9,5 C 7,8 C 78 % 1019,9 hPa 0,0 l/m 0 min 0 min 0,0 UV-I 0 W/m 10,3 km/h (2 Bft)
15.03.2014 00:34 9,4 C 7,8 C 79 % 1019,8 hPa 0,0 l/m 0 min 0 min 0,0 UV-I 0 W/m 7,7 km/h (2 Bft)
15.03.2014 00:36 9,4 C 7,8 C 79 % 1019,8 hPa 0,0 l/m 0 min 0 min 0,0 UV-I 0 W/m 18,0 km/h (3 Bft)
15.03.2014 00:38 9,5 C 7,8 C 79 % 1020,0 hPa 0,0 l/m 0 min 0 min 0,0 UV-I 0 W/m 12,9 km/h (3 Bft)
15.03.2014 00:40 9,5 C 7,8 C 78 % 1019,8 hPa 0,0 l/m 0 min 0 min 0,0 UV-I 0 W/m 12,9 km/h (3 Bft)
15.03.2014 00:42 9,5 C 7,8 C 78 % 1019,8 hPa 0,0 l/m 0 min 0 min 0,0 UV-I 0 W/m 12,9 km/h (3 Bft)
15.03.2014 00:44 9,5 C 7,8 C 78 % 1019,8 hPa 0,0 l/m 0 min 0 min 0,0 UV-I 0 W/m 10,3 km/h (2 Bft)
15.03.2014 00:46 9,5 C 7,8 C 79 % 1019,8 hPa 0,0 l/m 0 min 0 min 0,0 UV-I 0 W/m 7,7 km/h (2 Bft)
15.03.2014 00:48 9,5 C 7,8 C 79 % 1019,8 hPa 0,0 l/m 0 min 0 min 0,0 UV-I 0 W/m 12,9 km/h (3 Bft)
15.03.2014 00:50 9,5 C 7,8 C 79 % 1019,8 hPa 0,0 l/m 0 min 0 min 0,0 UV-I 0 W/m 20,6 km/h (4 Bft)
15.03.2014 00:52 9,6 C 7,8 C 79 % 1020,0 hPa 0,0 l/m 0 min 0 min 0,0 UV-I 0 W/m 18,0 km/h (3 Bft)
15.03.2014 00:54 9,6 C 7,8 C 79 % 1019,9 hPa 0,0 l/m 0 min 0 min 0,0 UV-I 0 W/m 12,9 km/h (3 Bft)
15.03.2014 00:56 9,6 C 7,8 C 79 % 1019,8 hPa 0,0 l/m 0 min 0 min 0,0 UV-I 0 W/m 10,3 km/h (2 Bft)
15.03.2014 00:58 9,6 C 7,8 C 79 % 1019,9 hPa 0,0 l/m 0 min 0 min 0,0 UV-I 0 W/m 10,3 km/h (2 Bft)
15.03.2014 01:00 9,6 C 7,8 C 79 % 1019,9 hPa 0,0 l/m 0 min 0 min 0,0 UV-I 0 W/m 10,3 km/h (2 Bft)
15.03.2014 01:03 9,6 C 7,8 C 79 % 1019,8 hPa 0,0 l/m 0 min 0 min 0,0 UV-I 0 W/m 18,0 km/h (3 Bft)
15.03.2014 01:04 9,6 C 7,8 C 79 % 1019,8 hPa 0,0 l/m 0 min 0 min 0,0 UV-I 0 W/m 7,7 km/h (2 Bft)
15.03.2014 01:06 9,5 C 7,8 C 79 % 1019,8 hPa 0,0 l/m 0 min 0 min 0,0 UV-I 0 W/m 15,4 km/h (3 Bft)
15.03.2014 01:08 9,5 C 7,8 C 79 % 1019,9 hPa 0,0 l/m 0 min 0 min 0,0 UV-I 0 W/m 5,1 km/h (1 Bft)
15.03.2014 01:10 9,5 C 7,8 C 79 % 1019,9 hPa 0,0 l/m 0 min 0 min 0,0 UV-I 0 W/m 10,3 km/h (2 Bft)
15.03.2014 01:12 9,4 C 7,8 C 79 % 1019,8 hPa 0,0 l/m 0 min 0 min 0,0 UV-I 0 W/m 7,7 km/h (2 Bft)
15.03.2014 01:14 9,4 C 7,8 C 79 % 1019,8 hPa 0,0 l/m 0 min 0 min 0,0 UV-I 0 W/m 0,0 km/h (0 Bft)
15.03.2014 01:16 9,3 C 7,2 C 80 % 1019,7 hPa 0,0 l/m 0 min 0 min 0,0 UV-I 0 W/m 5,1 km/h (1 Bft)
15.03.2014 01:18 9,3 C 7,2 C 80 % 1019,7 hPa 0,0 l/m 0 min 0 min 0,0 UV-I 0 W/m 10,3 km/h (2 Bft)
15.03.2014 01:20 9,3 C 7,2 C 80 % 1019,6 hPa 0,0 l/m 0 min 0 min 0,0 UV-I 0 W/m 10,3 km/h (2 Bft)
15.03.2014 01:22 9,2 C 7,2 C 80 % 1019,6 hPa 0,0 l/m 0 min 0 min 0,0 UV-I 0 W/m 12,9 km/h (3 Bft)
15.03.2014 01:24 9,2 C 7,2 C 80 % 1019,5 hPa 0,0 l/m 0 min 0 min 0,0 UV-I 0 W/m 10,3 km/h (2 Bft)
15.03.2014 01:26 9,2 C 7,2 C 80 % 1019,5 hPa 0,0 l/m 0 min 0 min 0,0 UV-I 0 W/m 15,4 km/h (3 Bft)
15.03.2014 01:28 9,2 C 7,2 C 80 % 1019,5 hPa 0,0 l/m 0 min 0 min 0,0 UV-I 0 W/m 10,3 km/h (2 Bft)
15.03.2014 01:30 9,2 C 7,2 C 80 % 1019,7 hPa 0,0 l/m 0 min 0 min 0,0 UV-I 0 W/m 10,3 km/h (2 Bft)
15.03.2014 01:32 9,1 C 7,2 C 81 % 1019,7 hPa 0,0 l/m 0 min 0 min 0,0 UV-I 0 W/m 5,1 km/h (1 Bft)
15.03.2014 01:34 9,1 C 7,2 C 81 % 1019,7 hPa 0,0 l/m 0 min 0 min 0,0 UV-I 0 W/m 5,1 km/h (1 Bft)
15.03.2014 01:36 9,1 C 7,2 C 81 % 1019,7 hPa 0,0 l/m 0 min 0 min 0,0 UV-I 0 W/m 2,6 km/h (1 Bft)
15.03.2014 01:38 9,0 C 7,2 C 81 % 1019,7 hPa 0,0 l/m 0 min 0 min 0,0 UV-I 0 W/m 12,9 km/h (3 Bft)
15.03.2014 01:40 9,0 C 7,2 C 81 % 1019,7 hPa 0,0 l/m 0 min 0 min 0,0 UV-I 0 W/m 2,6 km/h (1 Bft)
15.03.2014 01:42 8,9 C 7,2 C 81 % 1019,6 hPa 0,0 l/m 0 min 0 min 0,0 UV-I 0 W/m 15,4 km/h (3 Bft)
15.03.2014 01:44 8,9 C 7,2 C 81 % 1019,5 hPa 0,0 l/m 0 min 0 min 0,0 UV-I 0 W/m 10,3 km/h (2 Bft)
15.03.2014 01:46 8,8 C 7,2 C 81 % 1019,7 hPa 0,0 l/m 0 min 0 min 0,0 UV-I 0 W/m 5,1 km/h (1 Bft)
15.03.2014 01:48 8,8 C 7,2 C 81 % 1019,7 hPa 0,0 l/m 0 min 0 min 0,0 UV-I 0 W/m 12,9 km/h (3 Bft)
15.03.2014 01:50 8,8 C 7,2 C 81 % 1019,7 hPa 0,0 l/m 0 min 0 min 0,0 UV-I 0 W/m 0,0 km/h (0 Bft)
15.03.2014 01:52 8,8 C 7,2 C 82 % 1019,8 hPa 0,0 l/m 0 min 0 min 0,0 UV-I 0 W/m 10,3 km/h (2 Bft)
15.03.2014 01:54 8,7 C 7,2 C 82 % 1019,9 hPa 0,0 l/m 0 min 0 min 0,0 UV-I 0 W/m 10,3 km/h (2 Bft)
15.03.2014 01:56 8,8 C 7,2 C 82 % 1019,9 hPa 0,0 l/m 0 min 0 min 0,0 UV-I 0 W/m 12,9 km/h (3 Bft)
15.03.2014 01:58 8,8 C 7,2 C 82 % 1019,9 hPa 0,0 l/m 0 min 0 min 0,0 UV-I 0 W/m 2,6 km/h (1 Bft)
15.03.2014 02:00 8,8 C 7,2 C 81 % 1020,0 hPa 0,0 l/m 0 min 0 min 0,0 UV-I 0 W/m 10,3 km/h (2 Bft)
15.03.2014 02:02 8,9 C 7,2 C 81 % 1020,0 hPa 0,0 l/m 0 min 0 min 0,0 UV-I 0 W/m 15,4 km/h (3 Bft)
15.03.2014 02:06 8,9 C 7,2 C 81 % 1020,1 hPa 0,0 l/m 0 min 0 min 0,0 UV-I 0 W/m 15,4 km/h (3 Bft)
15.03.2014 02:08 8,9 C 7,2 C 81 % 1020,0 hPa 0,0 l/m 0 min 0 min 0,0 UV-I 0 W/m 15,4 km/h (3 Bft)
15.03.2014 02:10 8,9 C 7,2 C 81 % 1020,0 hPa 0,0 l/m 0 min 0 min 0,0 UV-I 0 W/m 2,6 km/h (1 Bft)
15.03.2014 02:12 8,9 C 7,2 C 81 % 1019,9 hPa 0,0 l/m 0 min 0 min 0,0 UV-I 0 W/m 18,0 km/h (3 Bft)
15.03.2014 02:14 8,9 C 7,2 C 81 % 1019,7 hPa 0,0 l/m 0 min 0 min 0,0 UV-I 0 W/m 12,9 km/h (3 Bft)
15.03.2014 02:16 8,9 C 7,2 C 81 % 1019,8 hPa 0,0 l/m 0 min 0 min 0,0 UV-I 0 W/m 10,3 km/h (2 Bft)
15.03.2014 02:18 8,9 C 7,2 C 81 % 1019,7 hPa 0,0 l/m 0 min 0 min 0,0 UV-I 0 W/m 5,1 km/h (1 Bft)
15.03.2014 02:20 8,9 C 7,2 C 81 % 1019,7 hPa 0,0 l/m 0 min 0 min 0,0 UV-I 0 W/m 10,3 km/h (2 Bft)
15.03.2014 02:22 8,8 C 7,2 C 81 % 1019,5 hPa 0,0 l/m 0 min 0 min 0,0 UV-I 0 W/m 2,6 km/h (1 Bft)
15.03.2014 02:24 8,8 C 7,2 C 81 % 1019,5 hPa 0,0 l/m 0 min 0 min 0,0 UV-I 0 W/m 0,0 km/h (0 Bft)
15.03.2014 02:26 8,8 C 7,2 C 81 % 1019,5 hPa 0,0 l/m 0 min 0 min 0,0 UV-I 0 W/m 12,9 km/h (3 Bft)
15.03.2014 02:28 8,8 C 7,2 C 81 % 1019,6 hPa 0,0 l/m 0 min 0 min 0,0 UV-I 0 W/m 20,6 km/h (4 Bft)
15.03.2014 02:30 8,8 C 7,2 C 81 % 1019,6 hPa 0,0 l/m 0 min 0 min 0,0 UV-I 0 W/m 15,4 km/h (3 Bft)
15.03.2014 02:32 8,7 C 7,2 C 82 % 1019,8 hPa 0,0 l/m 0 min 0 min 0,0 UV-I 0 W/m 10,3 km/h (2 Bft)
15.03.2014 02:34 8,7 C 7,2 C 82 % 1019,8 hPa 0,0 l/m 0 min 0 min 0,0 UV-I 0 W/m 7,7 km/h (2 Bft)
15.03.2014 02:36 8,7 C 7,2 C 82 % 1019,7 hPa 0,0 l/m 0 min 0 min 0,0 UV-I 0 W/m 7,7 km/h (2 Bft)
15.03.2014 02:38 8,7 C 7,2 C 82 % 1019,6 hPa 0,0 l/m 0 min 0 min 0,0 UV-I 0 W/m 12,9 km/h (3 Bft)
15.03.2014 02:40 8,7 C 7,2 C 82 % 1019,6 hPa 0,0 l/m 0 min 0 min 0,0 UV-I 0 W/m 7,7 km/h (2 Bft)
15.03.2014 02:42 8,7 C 7,2 C 82 % 1019,5 hPa 0,0 l/m 0 min 0 min 0,0 UV-I 0 W/m 7,7 km/h (2 Bft)
15.03.2014 02:44 8,8 C 7,2 C 82 % 1019,4 hPa 0,0 l/m 0 min 0 min 0,0 UV-I 0 W/m 10,3 km/h (2 Bft)
15.03.2014 02:46 8,8 C 7,2 C 83 % 1019,4 hPa 0,0 l/m 0 min 0 min 0,0 UV-I 0 W/m 28,3 km/h (4 Bft)
15.03.2014 02:48 8,8 C 7,2 C 83 % 1019,5 hPa 0,0 l/m 0 min 0 min 0,0 UV-I 0 W/m 0,0 km/h (0 Bft)
15.03.2014 02:50 8,8 C 7,2 C 83 % 1019,5 hPa 0,0 l/m 0 min 0 min 0,0 UV-I 0 W/m 12,9 km/h (3 Bft)
15.03.2014 02:52 8,8 C 7,2 C 83 % 1019,5 hPa 0,0 l/m 0 min 0 min 0,0 UV-I 0 W/m 18,0 km/h (3 Bft)
15.03.2014 02:54 8,7 C 7,2 C 83 % 1019,5 hPa 0,0 l/m 0 min 0 min 0,0 UV-I 0 W/m 15,4 km/h (3 Bft)
15.03.2014 02:56 8,7 C 7,2 C 83 % 1019,4 hPa 0,0 l/m 0 min 0 min 0,0 UV-I 0 W/m 20,6 km/h (4 Bft)
15.03.2014 02:58 8,7 C 7,2 C 83 % 1019,4 hPa 0,0 l/m 0 min 0 min 0,0 UV-I 0 W/m 25,7 km/h (4 Bft)
15.03.2014 03:00 8,7 C 7,2 C 83 % 1019,3 hPa 0,0 l/m 0 min 0 min 0,0 UV-I 0 W/m 12,9 km/h (3 Bft)
15.03.2014 03:02 8,7 C 7,2 C 83 % 1019,3 hPa 0,0 l/m 0 min 0 min 0,0 UV-I 0 W/m 12,9 km/h (3 Bft)
15.03.2014 03:06 8,6 C 7,2 C 84 % 1019,2 hPa 0,0 l/m 0 min 0 min 0,0 UV-I 0 W/m 15,4 km/h (3 Bft)
15.03.2014 03:08 8,6 C 7,2 C 84 % 1019,2 hPa 0,0 l/m 0 min 0 min 0,0 UV-I 0 W/m 15,4 km/h (3 Bft)
15.03.2014 03:10 8,6 C 7,2 C 84 % 1019,0 hPa 0,0 l/m 0 min 0 min 0,0 UV-I 0 W/m 7,7 km/h (2 Bft)
15.03.2014 03:12 8,5 C 7,2 C 84 % 1018,9 hPa 0,0 l/m 0 min 0 min 0,0 UV-I 0 W/m 18,0 km/h (3 Bft)
15.03.2014 03:14 8,5 C 7,2 C 85 % 1019,0 hPa 0,0 l/m 0 min 0 min 0,0 UV-I 0 W/m 12,9 km/h (3 Bft)
15.03.2014 03:16 8,5 C 7,2 C 85 % 1019,2 hPa 0,0 l/m 0 min 0 min 0,0 UV-I 0 W/m 7,7 km/h (2 Bft)
15.03.2014 03:18 8,5 C 7,2 C 85 % 1019,3 hPa 0,0 l/m 0 min 0 min 0,0 UV-I 0 W/m 15,4 km/h (3 Bft)
15.03.2014 03:20 8,5 C 7,2 C 85 % 1019,2 hPa 0,0 l/m 0 min 0 min 0,0 UV-I 0 W/m 7,7 km/h (2 Bft)
15.03.2014 03:22 8,5 C 7,2 C 85 % 1019,1 hPa 0,0 l/m 0 min 0 min 0,0 UV-I 0 W/m 23,2 km/h (4 Bft)
15.03.2014 03:24 8,5 C 7,2 C 85 % 1019,3 hPa 0,0 l/m 0 min 0 min 0,0 UV-I 0 W/m 10,3 km/h (2 Bft)
15.03.2014 03:26 8,5 C 7,2 C 86 % 1019,5 hPa 0,0 l/m 0 min 0 min 0,0 UV-I 0 W/m 5,1 km/h (1 Bft)
15.03.2014 03:28 8,5 C 7,2 C 86 % 1019,5 hPa 0,0 l/m 0 min 0 min 0,0 UV-I 0 W/m 10,3 km/h (2 Bft)
15.03.2014 03:30 8,6 C 7,2 C 86 % 1019,6 hPa 0,0 l/m 0 min 0 min 0,0 UV-I 0 W/m 20,6 km/h (4 Bft)
15.03.2014 03:32 8,6 C 7,2 C 86 % 1019,5 hPa 0,0 l/m 0 min 0 min 0,0 UV-I 0 W/m 18,0 km/h (3 Bft)
15.03.2014 03:34 8,6 C 7,2 C 86 % 1019,3 hPa 0,0 l/m 0 min 0 min 0,0 UV-I 0 W/m 18,0 km/h (3 Bft)
15.03.2014 03:36 8,6 C 7,2 C 86 % 1019,3 hPa 0,0 l/m 0 min 0 min 0,0 UV-I 0 W/m 10,3 km/h (2 Bft)
15.03.2014 03:38 8,6 C 7,2 C 86 % 1019,1 hPa 0,0 l/m 0 min 0 min 0,0 UV-I 0 W/m 15,4 km/h (3 Bft)
15.03.2014 03:40 8,6 C 7,2 C 86 % 1019,1 hPa 0,0 l/m 0 min 0 min 0,0 UV-I 0 W/m 18,0 km/h (3 Bft)
15.03.2014 03:42 8,6 C 7,2 C 86 % 1019,1 hPa 0,0 l/m 0 min 0 min 0,0 UV-I 0 W/m 15,4 km/h (3 Bft)
15.03.2014 03:44 8,6 C 7,2 C 86 % 1019,1 hPa 0,0 l/m 0 min 0 min 0,0 UV-I 0 W/m 15,4 km/h (3 Bft)
15.03.2014 03:46 8,6 C 7,2 C 86 % 1019,2 hPa 0,0 l/m 0 min 0 min 0,0 UV-I 0 W/m 10,3 km/h (2 Bft)
15.03.2014 03:48 8,6 C 7,2 C 87 % 1019,2 hPa 0,0 l/m 0 min 0 min 0,0 UV-I 0 W/m 12,9 km/h (3 Bft)
15.03.2014 03:50 8,6 C 7,2 C 87 % 1019,1 hPa 0,0 l/m 0 min 0 min 0,0 UV-I 0 W/m 15,4 km/h (3 Bft)
15.03.2014 03:52 8,6 C 7,2 C 87 % 1019,1 hPa 0,0 l/m 0 min 0 min 0,0 UV-I 0 W/m 7,7 km/h (2 Bft)
15.03.2014 03:54 8,6 C 7,2 C 87 % 1019,1 hPa 0,0 l/m 0 min 0 min 0,0 UV-I 0 W/m 18,0 km/h (3 Bft)
15.03.2014 03:56 8,6 C 7,2 C 87 % 1019,1 hPa 0,0 l/m 0 min 0 min 0,0 UV-I 0 W/m 5,1 km/h (1 Bft)
15.03.2014 03:58 8,6 C 7,2 C 87 % 1019,0 hPa 0,0 l/m 0 min 0 min 0,0 UV-I 0 W/m 20,6 km/h (4 Bft)
15.03.2014 04:00 8,6 C 7,2 C 87 % 1018,8 hPa 0,0 l/m 0 min 0 min 0,0 UV-I 0 W/m 7,7 km/h (2 Bft)
15.03.2014 04:05 8,6 C 7,2 C 87 % 1018,7 hPa 0,0 l/m 0 min 0 min 0,0 UV-I 0 W/m 5,1 km/h (1 Bft)
15.03.2014 04:06 8,5 C 7,2 C 87 % 1018,7 hPa 0,0 l/m 0 min 0 min 0,0 UV-I 0 W/m 15,4 km/h (3 Bft)
15.03.2014 04:08 8,5 C 7,2 C 87 % 1018,8 hPa 0,0 l/m 0 min 0 min 0,0 UV-I 0 W/m 15,4 km/h (3 Bft)
15.03.2014 04:10 8,5 C 7,2 C 88 % 1018,9 hPa 0,0 l/m 0 min 0 min 0,0 UV-I 0 W/m 12,9 km/h (3 Bft)
15.03.2014 04:12 8,5 C 7,2 C 88 % 1019,1 hPa 0,0 l/m 0 min 0 min 0,0 UV-I 0 W/m 10,3 km/h (2 Bft)
15.03.2014 04:14 8,5 C 7,2 C 88 % 1019,2 hPa 0,0 l/m 0 min 0 min 0,0 UV-I 0 W/m 5,1 km/h (1 Bft)
15.03.2014 04:16 8,5 C 7,2 C 88 % 1019,3 hPa 0,0 l/m 0 min 0 min 0,0 UV-I 0 W/m 7,7 km/h (2 Bft)
15.03.2014 04:18 8,5 C 7,2 C 88 % 1019,4 hPa 0,0 l/m 0 min 0 min 0,0 UV-I 0 W/m 20,6 km/h (4 Bft)
15.03.2014 04:20 8,5 C 7,2 C 88 % 1019,4 hPa 0,0 l/m 0 min 0 min 0,0 UV-I 0 W/m 10,3 km/h (2 Bft)
15.03.2014 04:22 8,6 C 7,2 C 88 % 1019,2 hPa 0,0 l/m 0 min 0 min 0,0 UV-I 0 W/m 10,3 km/h (2 Bft)
15.03.2014 04:24 8,6 C 7,2 C 88 % 1019,1 hPa 0,0 l/m 0 min 0 min 0,0 UV-I 0 W/m 7,7 km/h (2 Bft)
15.03.2014 04:26 8,6 C 7,2 C 88 % 1019,1 hPa 0,0 l/m 0 min 0 min 0,0 UV-I 0 W/m 12,9 km/h (3 Bft)
15.03.2014 04:28 8,5 C 7,2 C 88 % 1019,0 hPa 0,0 l/m 0 min 0 min 0,0 UV-I 0 W/m 10,3 km/h (2 Bft)
15.03.2014 04:30 8,5 C 7,2 C 88 % 1019,0 hPa 0,0 l/m 0 min 0 min 0,0 UV-I 0 W/m 12,9 km/h (3 Bft)
15.03.2014 04:32 8,5 C 7,2 C 88 % 1019,2 hPa 0,0 l/m 0 min 0 min 0,0 UV-I 0 W/m 10,3 km/h (2 Bft)
15.03.2014 04:34 8,5 C 7,2 C 88 % 1019,0 hPa 0,0 l/m 0 min 0 min 0,0 UV-I 0 W/m 10,3 km/h (2 Bft)
15.03.2014 04:36 8,5 C 7,2 C 88 % 1019,1 hPa 0,0 l/m 0 min 0 min 0,0 UV-I 0 W/m 7,7 km/h (2 Bft)
15.03.2014 04:38 8,5 C 7,2 C 88 % 1019,0 hPa 0,0 l/m 0 min 0 min 0,0 UV-I 0 W/m 10,3 km/h (2 Bft)
15.03.2014 04:40 8,5 C 7,2 C 88 % 1019,1 hPa 0,0 l/m 0 min 0 min 0,0 UV-I 0 W/m 12,9 km/h (3 Bft)
15.03.2014 04:42 8,5 C 7,2 C 88 % 1019,0 hPa 0,0 l/m 0 min 0 min 0,0 UV-I 0 W/m 20,6 km/h (4 Bft)
15.03.2014 04:44 8,5 C 7,2 C 88 % 1019,0 hPa 0,0 l/m 0 min 0 min 0,0 UV-I 0 W/m 20,6 km/h (4 Bft)
15.03.2014 04:46 8,5 C 7,2 C 88 % 1019,0 hPa 0,0 l/m 0 min 0 min 0,0 UV-I 0 W/m 18,0 km/h (3 Bft)
15.03.2014 04:48 8,5 C 7,2 C 88 % 1019,0 hPa 0,0 l/m 0 min 0 min 0,0 UV-I 0 W/m 15,4 km/h (3 Bft)
15.03.2014 04:50 8,5 C 7,2 C 88 % 1019,0 hPa 0,0 l/m 0 min 0 min 0,0 UV-I 0 W/m 12,9 km/h (3 Bft)
15.03.2014 04:52 8,5 C 7,2 C 88 % 1019,1 hPa 0,0 l/m 0 min 0 min 0,0 UV-I 0 W/m 5,1 km/h (1 Bft)
15.03.2014 04:54 8,6 C 7,2 C 88 % 1019,1 hPa 0,0 l/m 0 min 0 min 0,0 UV-I 0 W/m 12,9 km/h (3 Bft)
15.03.2014 04:56 8,6 C 7,2 C 88 % 1019,0 hPa 0,0 l/m 0 min 0 min 0,0 UV-I 0 W/m 18,0 km/h (3 Bft)
15.03.2014 04:58 8,6 C 7,2 C 88 % 1019,0 hPa 0,0 l/m 0 min 0 min 0,0 UV-I 0 W/m 25,7 km/h (4 Bft)
15.03.2014 05:00 8,6 C 7,2 C 88 % 1019,0 hPa 0,0 l/m 0 min 0 min 0,0 UV-I 0 W/m 10,3 km/h (2 Bft)
15.03.2014 05:02 8,6 C 7,2 C 88 % 1019,0 hPa 0,0 l/m 0 min 0 min 0,0 UV-I 0 W/m 12,9 km/h (3 Bft)
15.03.2014 05:06 8,6 C 7,2 C 88 % 1019,0 hPa 0,0 l/m 0 min 0 min 0,0 UV-I 0 W/m 30,9 km/h (5 Bft)
15.03.2014 05:08 8,6 C 7,2 C 88 % 1018,9 hPa 0,0 l/m 0 min 0 min 0,0 UV-I 0 W/m 12,9 km/h (3 Bft)
15.03.2014 05:10 8,6 C 7,2 C 88 % 1019,0 hPa 0,0 l/m 0 min 0 min 0,0 UV-I 0 W/m 10,3 km/h (2 Bft)
15.03.2014 05:12 8,6 C 7,2 C 88 % 1018,9 hPa 0,0 l/m 0 min 0 min 0,0 UV-I 0 W/m 7,7 km/h (2 Bft)
15.03.2014 05:14 8,6 C 7,2 C 88 % 1018,9 hPa 0,0 l/m 0 min 0 min 0,0 UV-I 0 W/m 18,0 km/h (3 Bft)
15.03.2014 05:16 8,6 C 7,2 C 88 % 1018,7 hPa 0,0 l/m 0 min 0 min 0,0 UV-I 0 W/m 12,9 km/h (3 Bft)
15.03.2014 05:18 8,6 C 7,2 C 88 % 1018,8 hPa 0,0 l/m 0 min 0 min 0,0 UV-I 0 W/m 25,7 km/h (4 Bft)
15.03.2014 05:20 8,6 C 7,2 C 88 % 1018,7 hPa 0,0 l/m 0 min 0 min 0,0 UV-I 0 W/m 15,4 km/h (3 Bft)
15.03.2014 05:22 8,6 C 7,2 C 88 % 1018,7 hPa 0,0 l/m 0 min 0 min 0,0 UV-I 0 W/m 7,7 km/h (2 Bft)
15.03.2014 05:24 8,6 C 7,2 C 88 % 1018,7 hPa 0,0 l/m 0 min 0 min 0,0 UV-I 0 W/m 18,0 km/h (3 Bft)
15.03.2014 05:26 8,6 C 7,2 C 88 % 1018,7 hPa 0,0 l/m 0 min 0 min 0,0 UV-I 0 W/m 12,9 km/h (3 Bft)
15.03.2014 05:28 8,6 C 7,2 C 88 % 1018,7 hPa 0,0 l/m 0 min 0 min 0,0 UV-I 0 W/m 23,2 km/h (4 Bft)
15.03.2014 05:30 8,6 C 7,2 C 88 % 1018,8 hPa 0,0 l/m 0 min 0 min 0,0 UV-I 0 W/m 18,0 km/h (3 Bft)
15.03.2014 05:32 8,6 C 7,2 C 88 % 1018,8 hPa 0,0 l/m 0 min 0 min 0,0 UV-I 0 W/m 20,6 km/h (4 Bft)
15.03.2014 05:34 8,6 C 7,2 C 88 % 1018,9 hPa 0,0 l/m 0 min 0 min 0,0 UV-I 0 W/m 12,9 km/h (3 Bft)
15.03.2014 05:36 8,6 C 7,2 C 88 % 1019,0 hPa 0,0 l/m 0 min 0 min 0,0 UV-I 0 W/m 15,4 km/h (3 Bft)
15.03.2014 05:38 8,6 C 7,2 C 88 % 1019,0 hPa 0,0 l/m 0 min 0 min 0,0 UV-I 0 W/m 15,4 km/h (3 Bft)
15.03.2014 05:40 8,6 C 7,2 C 88 % 1019,1 hPa 0,0 l/m 0 min 0 min 0,0 UV-I 0 W/m 7,7 km/h (2 Bft)
15.03.2014 05:42 8,7 C 7,2 C 88 % 1019,2 hPa 0,0 l/m 0 min 0 min 0,0 UV-I 0 W/m 15,4 km/h (3 Bft)
15.03.2014 05:44 8,7 C 7,2 C 88 % 1019,1 hPa 0,0 l/m 0 min 0 min 0,0 UV-I 0 W/m 18,0 km/h (3 Bft)
15.03.2014 05:46 8,7 C 7,2 C 88 % 1019,1 hPa 0,0 l/m 0 min 0 min 0,0 UV-I 0 W/m 23,2 km/h (4 Bft)
15.03.2014 05:48 8,7 C 7,2 C 88 % 1019,1 hPa 0,0 l/m 0 min 0 min 0,0 UV-I 0 W/m 25,7 km/h (4 Bft)
15.03.2014 05:50 8,7 C 7,2 C 88 % 1019,0 hPa 0,0 l/m 0 min 0 min 0,0 UV-I 0 W/m 12,9 km/h (3 Bft)
15.03.2014 05:52 8,7 C 7,2 C 88 % 1019,0 hPa 0,0 l/m 0 min 0 min 0,0 UV-I 0 W/m 23,2 km/h (4 Bft)
15.03.2014 05:54 8,7 C 7,2 C 88 % 1019,0 hPa 0,0 l/m 0 min 0 min 0,0 UV-I 0 W/m 18,0 km/h (3 Bft)
15.03.2014 05:56 8,7 C 7,2 C 88 % 1019,0 hPa 0,0 l/m 0 min 0 min 0,0 UV-I 0 W/m 28,3 km/h (4 Bft)
15.03.2014 05:58 8,7 C 7,2 C 88 % 1019,0 hPa 0,0 l/m 0 min 0 min 0,0 UV-I 0 W/m 15,4 km/h (3 Bft)
15.03.2014 06:00 8,7 C 7,2 C 88 % 1018,9 hPa 0,0 l/m 0 min 0 min 0,0 UV-I 0 W/m 10,3 km/h (2 Bft)
15.03.2014 06:02 8,6 C 7,2 C 88 % 1018,9 hPa 0,0 l/m 0 min 0 min 0,0 UV-I 0 W/m 18,0 km/h (3 Bft)
15.03.2014 06:04 8,6 C 7,2 C 88 % 1019,0 hPa 0,0 l/m 0 min 0 min 0,0 UV-I 0 W/m 10,3 km/h (2 Bft)
15.03.2014 06:06 8,6 C 7,2 C 88 % 1019,1 hPa 0,0 l/m 0 min 0 min 0,0 UV-I 0 W/m 2,6 km/h (1 Bft)
15.03.2014 06:08 8,6 C 7,2 C 89 % 1019,1 hPa 0,0 l/m 0 min 0 min 0,0 UV-I 0 W/m 5,1 km/h (1 Bft)
15.03.2014 06:10 8,6 C 7,2 C 89 % 1019,0 hPa 0,0 l/m 0 min 0 min 0,0 UV-I 0 W/m 12,9 km/h (3 Bft)
15.03.2014 06:12 8,5 C 7,2 C 89 % 1019,0 hPa 0,0 l/m 0 min 0 min 0,0 UV-I 0 W/m 20,6 km/h (4 Bft)
15.03.2014 06:14 8,5 C 7,2 C 89 % 1019,0 hPa 0,0 l/m 0 min 0 min 0,0 UV-I 0 W/m 20,6 km/h (4 Bft)
15.03.2014 06:16 8,5 C 7,2 C 89 % 1019,1 hPa 0,0 l/m 0 min 0 min 0,0 UV-I 0 W/m 23,2 km/h (4 Bft)
15.03.2014 06:18 8,4 C 7,2 C 89 % 1018,9 hPa 0,0 l/m 0 min 0 min 0,0 UV-I 0 W/m 23,2 km/h (4 Bft)
15.03.2014 06:20 8,4 C 6,7 C 90 % 1018,9 hPa 0,0 l/m 0 min 0 min 0,0 UV-I 0 W/m 10,3 km/h (2 Bft)
15.03.2014 06:22 8,4 C 6,7 C 90 % 1018,9 hPa 0,0 l/m 0 min 0 min 0,0 UV-I 0 W/m 15,4 km/h (3 Bft)
15.03.2014 06:24 8,4 C 6,7 C 90 % 1018,9 hPa 0,0 l/m 0 min 0 min 0,0 UV-I 0 W/m 7,7 km/h (2 Bft)
15.03.2014 06:26 8,4 C 6,7 C 90 % 1018,9 hPa 0,0 l/m 0 min 2 min 0,0 UV-I 0 W/m 23,2 km/h (4 Bft)
15.03.2014 06:28 8,4 C 6,7 C 90 % 1018,9 hPa 0,0 l/m 0 min 2 min 0,0 UV-I 0 W/m 18,0 km/h (3 Bft)
15.03.2014 06:30 8,3 C 6,7 C 90 % 1019,0 hPa 0,0 l/m 0 min 0 min 0,0 UV-I 0 W/m 5,1 km/h (1 Bft)
15.03.2014 06:32 8,3 C 6,7 C 91 % 1018,9 hPa 0,0 l/m 0 min 2 min 0,0 UV-I 0 W/m 15,4 km/h (3 Bft)
15.03.2014 06:34 8,3 C 6,7 C 91 % 1018,9 hPa 0,0 l/m 0 min 2 min 0,0 UV-I 0 W/m 18,0 km/h (3 Bft)
15.03.2014 06:36 8,3 C 6,7 C 91 % 1019,0 hPa 0,0 l/m 0 min 2 min 0,0 UV-I 0 W/m 18,0 km/h (3 Bft)
15.03.2014 06:38 8,2 C 6,7 C 91 % 1019,0 hPa 0,0 l/m 0 min 2 min 0,0 UV-I 0 W/m 15,4 km/h (3 Bft)
15.03.2014 06:40 8,2 C 6,7 C 91 % 1018,9 hPa 0,0 l/m 0 min 0 min 0,0 UV-I 0 W/m 15,4 km/h (3 Bft)
15.03.2014 06:42 8,2 C 6,7 C 91 % 1018,9 hPa 0,0 l/m 0 min 0 min 0,0 UV-I 0 W/m 10,3 km/h (2 Bft)
15.03.2014 06:44 8,2 C 6,7 C 92 % 1018,9 hPa 0,0 l/m 0 min 0 min 0,0 UV-I 0 W/m 12,9 km/h (3 Bft)
15.03.2014 06:46 8,2 C 6,7 C 92 % 1018,9 hPa 0,0 l/m 0 min 0 min 0,0 UV-I 0 W/m 23,2 km/h (4 Bft)
15.03.2014 06:48 8,1 C 6,7 C 92 % 1019,0 hPa 0,0 l/m 0 min 0 min 0,0 UV-I 0 W/m 15,4 km/h (3 Bft)
15.03.2014 06:50 8,2 C 6,7 C 92 % 1018,9 hPa 0,0 l/m 0 min 0 min 0,0 UV-I 0 W/m 10,3 km/h (2 Bft)
15.03.2014 06:52 8,2 C 6,7 C 92 % 1018,9 hPa 0,0 l/m 0 min 0 min 0,0 UV-I 0 W/m 18,0 km/h (3 Bft)
15.03.2014 06:54 8,2 C 6,7 C 92 % 1019,0 hPa 0,0 l/m 0 min 0 min 0,0 UV-I 0 W/m 15,4 km/h (3 Bft)
15.03.2014 06:56 8,2 C 6,7 C 92 % 1019,0 hPa 0,0 l/m 0 min 0 min 0,0 UV-I 0 W/m 15,4 km/h (3 Bft)
15.03.2014 06:58 8,2 C 6,7 C 92 % 1018,9 hPa 0,0 l/m 0 min 0 min 0,0 UV-I 0 W/m 15,4 km/h (3 Bft)
15.03.2014 07:00 8,2 C 6,7 C 92 % 1019,0 hPa 0,0 l/m 0 min 0 min 0,0 UV-I 0 W/m 10,3 km/h (2 Bft)
15.03.2014 07:02 8,2 C 6,7 C 92 % 1019,1 hPa 0,0 l/m 0 min 0 min 0,0 UV-I 0 W/m 20,6 km/h (4 Bft)
15.03.2014 07:04 8,2 C 6,7 C 92 % 1019,1 hPa 0,0 l/m 0 min 0 min 0,0 UV-I 0 W/m 12,9 km/h (3 Bft)
15.03.2014 07:06 8,2 C 6,7 C 92 % 1019,1 hPa 0,0 l/m 0 min 0 min 0,0 UV-I 0 W/m 5,1 km/h (1 Bft)
15.03.2014 07:08 8,2 C 6,7 C 92 % 1019,0 hPa 0,0 l/m 0 min 2 min 0,0 UV-I 0 W/m 10,3 km/h (2 Bft)
15.03.2014 07:10 8,1 C 6,7 C 92 % 1019,0 hPa 0,0 l/m 0 min 2 min 0,0 UV-I 5 W/m 15,4 km/h (3 Bft)
15.03.2014 07:12 8,1 C 6,7 C 92 % 1019,1 hPa 0,0 l/m 0 min 2 min 0,0 UV-I 5 W/m 12,9 km/h (3 Bft)
15.03.2014 07:14 8,1 C 6,7 C 93 % 1019,2 hPa 0,0 l/m 0 min 2 min 0,0 UV-I 0 W/m 15,4 km/h (3 Bft)
15.03.2014 07:16 8,1 C 6,7 C 93 % 1019,1 hPa 0,0 l/m 0 min 2 min 0,0 UV-I 0 W/m 5,1 km/h (1 Bft)
15.03.2014 07:18 8,0 C 6,7 C 93 % 1019,1 hPa 0,0 l/m 0 min 2 min 0,0 UV-I 0 W/m 15,4 km/h (3 Bft)
15.03.2014 07:20 8,0 C 6,7 C 93 % 1019,2 hPa 0,2 l/m 0 min 2 min 0,0 UV-I 0 W/m 12,9 km/h (3 Bft)
15.03.2014 07:22 7,9 C 6,7 C 93 % 1019,3 hPa 0,0 l/m 0 min 2 min 0,0 UV-I 0 W/m 20,6 km/h (4 Bft)
15.03.2014 07:24 7,9 C 6,7 C 93 % 1019,3 hPa 0,0 l/m 0 min 2 min 0,0 UV-I 0 W/m 18,0 km/h (3 Bft)
15.03.2014 07:26 7,9 C 6,7 C 94 % 1019,4 hPa 0,2 l/m 0 min 2 min 0,0 UV-I 0 W/m 15,4 km/h (3 Bft)
15.03.2014 07:28 7,9 C 6,7 C 94 % 1019,4 hPa 0,0 l/m 0 min 2 min 0,0 UV-I 5 W/m 18,0 km/h (3 Bft)
15.03.2014 07:30 7,9 C 6,7 C 94 % 1019,4 hPa 0,0 l/m 0 min 2 min 0,0 UV-I 11 W/m 30,9 km/h (5 Bft)
15.03.2014 07:32 7,9 C 6,7 C 94 % 1019,4 hPa 0,0 l/m 0 min 2 min 0,0 UV-I 11 W/m 23,2 km/h (4 Bft)
15.03.2014 07:34 7,8 C 6,7 C 94 % 1019,5 hPa 0,0 l/m 0 min 0 min 0,0 UV-I 9 W/m 15,4 km/h (3 Bft)
15.03.2014 07:36 7,8 C 6,7 C 94 % 1019,6 hPa 0,0 l/m 0 min 0 min 0,0 UV-I 12 W/m 2,6 km/h (1 Bft)
15.03.2014 07:38 7,8 C 6,7 C 94 % 1019,7 hPa 0,0 l/m 0 min 0 min 0,0 UV-I 11 W/m 15,4 km/h (3 Bft)
15.03.2014 07:40 7,8 C 6,7 C 94 % 1019,8 hPa 0,0 l/m 0 min 0 min 0,0 UV-I 9 W/m 2,6 km/h (1 Bft)
15.03.2014 07:42 7,8 C 6,7 C 95 % 1019,8 hPa 0,0 l/m 0 min 0 min 0,0 UV-I 9 W/m 15,4 km/h (3 Bft)
15.03.2014 07:44 7,8 C 6,7 C 95 % 1019,8 hPa 0,0 l/m 0 min 0 min 0,0 UV-I 11 W/m 10,3 km/h (2 Bft)
15.03.2014 07:46 7,8 C 6,7 C 95 % 1019,7 hPa 0,0 l/m 0 min 0 min 0,0 UV-I 11 W/m 0,0 km/h (0 Bft)
15.03.2014 07:48 7,8 C 6,7 C 95 % 1019,8 hPa 0,0 l/m 0 min 0 min 0,0 UV-I 11 W/m 20,6 km/h (4 Bft)
15.03.2014 07:50 7,8 C 6,7 C 95 % 1019,7 hPa 0,0 l/m 0 min 0 min 0,0 UV-I 12 W/m 10,3 km/h (2 Bft)
15.03.2014 07:52 7,8 C 6,7 C 95 % 1019,6 hPa 0,0 l/m 0 min 0 min 0,0 UV-I 12 W/m 10,3 km/h (2 Bft)
15.03.2014 07:54 7,8 C 6,7 C 95 % 1019,6 hPa 0,0 l/m 0 min 0 min 0,0 UV-I 16 W/m 5,1 km/h (1 Bft)
15.03.2014 07:56 7,8 C 6,7 C 95 % 1019,7 hPa 0,0 l/m 0 min 0 min 0,0 UV-I 12 W/m 18,0 km/h (3 Bft)
15.03.2014 07:58 7,8 C 6,7 C 95 % 1019,7 hPa 0,0 l/m 0 min 0 min 0,0 UV-I 14 W/m 15,4 km/h (3 Bft)
15.03.2014 08:00 7,8 C 6,7 C 95 % 1019,8 hPa 0,0 l/m 0 min 2 min 0,0 UV-I 12 W/m 12,9 km/h (3 Bft)
15.03.2014 08:02 7,8 C 6,7 C 95 % 1019,9 hPa 0,0 l/m 0 min 2 min 0,0 UV-I 11 W/m 0,0 km/h (0 Bft)
15.03.2014 08:04 7,8 C 6,7 C 95 % 1019,9 hPa 0,0 l/m 0 min 2 min 0,0 UV-I 9 W/m 5,1 km/h (1 Bft)
15.03.2014 08:06 7,8 C 6,7 C 95 % 1019,9 hPa 0,0 l/m 0 min 2 min 0,0 UV-I 9 W/m 10,3 km/h (2 Bft)
15.03.2014 08:08 7,8 C 6,7 C 95 % 1019,8 hPa 0,0 l/m 0 min 2 min 0,0 UV-I 9 W/m 5,1 km/h (1 Bft)
15.03.2014 08:10 7,8 C 6,7 C 95 % 1019,8 hPa 0,0 l/m 0 min 2 min 0,0 UV-I 7 W/m 12,9 km/h (3 Bft)
15.03.2014 08:12 7,8 C 6,7 C 95 % 1019,7 hPa 0,0 l/m 0 min 2 min 0,0 UV-I 11 W/m 15,4 km/h (3 Bft)
15.03.2014 08:14 7,8 C 6,7 C 95 % 1019,6 hPa 0,0 l/m 0 min 2 min 0,0 UV-I 11 W/m 10,3 km/h (2 Bft)
15.03.2014 08:16 7,8 C 6,7 C 95 % 1019,6 hPa 0,0 l/m 0 min 2 min 0,0 UV-I 12 W/m 10,3 km/h (2 Bft)
15.03.2014 08:18 7,8 C 6,7 C 95 % 1019,7 hPa 0,2 l/m 0 min 2 min 0,0 UV-I 7 W/m 18,0 km/h (3 Bft)
15.03.2014 08:20 7,8 C 6,7 C 95 % 1019,8 hPa 0,0 l/m 0 min 2 min 0,0 UV-I 9 W/m 7,7 km/h (2 Bft)
15.03.2014 08:22 7,7 C 6,1 C 95 % 1019,8 hPa 0,0 l/m 0 min 2 min 0,0 UV-I 14 W/m 12,9 km/h (3 Bft)
15.03.2014 08:24 7,7 C 6,1 C 95 % 1019,9 hPa 0,2 l/m 0 min 0 min 0,0 UV-I 14 W/m 10,3 km/h (2 Bft)
15.03.2014 08:26 7,7 C 6,1 C 95 % 1019,9 hPa 0,0 l/m 0 min 0 min 0,0 UV-I 16 W/m 10,3 km/h (2 Bft)
15.03.2014 08:28 7,7 C 6,1 C 95 % 1019,9 hPa 0,0 l/m 0 min 0 min 0,0 UV-I 16 W/m 10,3 km/h (2 Bft)
15.03.2014 08:30 7,7 C 6,1 C 95 % 1020,0 hPa 0,0 l/m 0 min 0 min 0,0 UV-I 16 W/m 12,9 km/h (3 Bft)
15.03.2014 08:32 7,7 C 6,1 C 95 % 1020,1 hPa 0,0 l/m 0 min 0 min 0,0 UV-I 16 W/m 12,9 km/h (3 Bft)
15.03.2014 08:34 7,7 C 6,1 C 95 % 1020,1 hPa 0,0 l/m 0 min 0 min 0,0 UV-I 19 W/m 2,6 km/h (1 Bft)
15.03.2014 08:36 7,7 C 6,1 C 95 % 1020,0 hPa 0,0 l/m 0 min 0 min 0,0 UV-I 18 W/m 10,3 km/h (2 Bft)
15.03.2014 08:38 7,7 C 6,1 C 95 % 1020,1 hPa 0,0 l/m 0 min 0 min 0,0 UV-I 18 W/m 7,7 km/h (2 Bft)
15.03.2014 08:40 7,7 C 6,1 C 95 % 1020,2 hPa 0,0 l/m 0 min 0 min 0,0 UV-I 23 W/m 10,3 km/h (2 Bft)
15.03.2014 08:42 7,7 C 6,1 C 95 % 1020,1 hPa 0,0 l/m 0 min 0 min 0,0 UV-I 26 W/m 7,7 km/h (2 Bft)
15.03.2014 08:44 7,7 C 6,1 C 95 % 1020,0 hPa 0,0 l/m 0 min 0 min 0,0 UV-I 33 W/m 2,6 km/h (1 Bft)
15.03.2014 08:46 7,7 C 6,1 C 95 % 1020,0 hPa 0,0 l/m 0 min 0 min 0,0 UV-I 40 W/m 7,7 km/h (2 Bft)
15.03.2014 08:48 7,7 C 6,1 C 95 % 1020,1 hPa 0,0 l/m 0 min 0 min 0,0 UV-I 42 W/m 18,0 km/h (3 Bft)
15.03.2014 08:50 7,7 C 6,1 C 95 % 1020,1 hPa 0,0 l/m 0 min 0 min 0,0 UV-I 42 W/m 5,1 km/h (1 Bft)
15.03.2014 08:52 7,7 C 6,1 C 95 % 1020,1 hPa 0,0 l/m 0 min 0 min 0,0 UV-I 42 W/m 7,7 km/h (2 Bft)
15.03.2014 08:54 7,7 C 6,7 C 95 % 1020,2 hPa 0,0 l/m 0 min 0 min 0,0 UV-I 40 W/m 10,3 km/h (2 Bft)
15.03.2014 08:56 7,7 C 6,7 C 95 % 1020,2 hPa 0,0 l/m 0 min 0 min 0,0 UV-I 40 W/m 10,3 km/h (2 Bft)
15.03.2014 08:58 7,7 C 6,7 C 95 % 1020,1 hPa 0,0 l/m 0 min 0 min 0,0 UV-I 42 W/m 15,4 km/h (3 Bft)
15.03.2014 09:00 7,7 C 6,7 C 95 % 1020,0 hPa 0,0 l/m 0 min 0 min 0,0 UV-I 42 W/m 12,9 km/h (3 Bft)
15.03.2014 09:02 7,7 C 6,7 C 95 % 1020,1 hPa 0,0 l/m 0 min 0 min 0,0 UV-I 42 W/m 5,1 km/h (1 Bft)
15.03.2014 09:06 7,7 C 6,7 C 95 % 1020,1 hPa 0,0 l/m 0 min 0 min 0,0 UV-I 44 W/m 10,3 km/h (2 Bft)
15.03.2014 09:08 7,7 C 6,7 C 95 % 1020,1 hPa 0,0 l/m 0 min 0 min 0,0 UV-I 46 W/m 7,7 km/h (2 Bft)
15.03.2014 09:10 7,8 C 6,7 C 95 % 1020,2 hPa 0,0 l/m 0 min 0 min 0,0 UV-I 49 W/m 5,1 km/h (1 Bft)
15.03.2014 09:12 7,8 C 6,7 C 95 % 1020,2 hPa 0,0 l/m 0 min 0 min 0,0 UV-I 53 W/m 2,6 km/h (1 Bft)
15.03.2014 09:14 7,8 C 6,7 C 95 % 1020,2 hPa 0,0 l/m 0 min 0 min 0,0 UV-I 49 W/m 12,9 km/h (3 Bft)
15.03.2014 09:16 7,8 C 6,7 C 95 % 1020,3 hPa 0,0 l/m 0 min 0 min 0,0 UV-I 47 W/m 5,1 km/h (1 Bft)
15.03.2014 09:18 7,8 C 6,7 C 95 % 1020,3 hPa 0,0 l/m 0 min 0 min 0,0 UV-I 46 W/m 10,3 km/h (2 Bft)
15.03.2014 09:20 7,8 C 6,7 C 95 % 1020,3 hPa 0,0 l/m 0 min 0 min 0,0 UV-I 51 W/m 10,3 km/h (2 Bft)
15.03.2014 09:22 7,8 C 6,7 C 95 % 1020,3 hPa 0,0 l/m 0 min 0 min 0,0 UV-I 53 W/m 2,6 km/h (1 Bft)
15.03.2014 09:24 7,8 C 6,7 C 95 % 1020,4 hPa 0,0 l/m 0 min 0 min 0,0 UV-I 54 W/m 5,1 km/h (1 Bft)
15.03.2014 09:26 7,8 C 6,7 C 95 % 1020,4 hPa 0,0 l/m 0 min 0 min 0,0 UV-I 54 W/m 5,1 km/h (1 Bft)
15.03.2014 09:28 7,9 C 6,7 C 95 % 1020,3 hPa 0,0 l/m 0 min 0 min 0,0 UV-I 58 W/m 0,0 km/h (0 Bft)
15.03.2014 09:30 7,9 C 6,7 C 95 % 1020,4 hPa 0,0 l/m 0 min 0 min 0,0 UV-I 60 W/m 10,3 km/h (2 Bft)
15.03.2014 09:32 7,9 C 6,7 C 95 % 1020,5 hPa 0,0 l/m 0 min 0 min 0,0 UV-I 63 W/m 2,6 km/h (1 Bft)
15.03.2014 09:34 7,9 C 6,7 C 95 % 1020,6 hPa 0,0 l/m 0 min 0 min 0,0 UV-I 56 W/m 10,3 km/h (2 Bft)
15.03.2014 09:36 7,9 C 6,7 C 95 % 1020,7 hPa 0,0 l/m 0 min 0 min 0,0 UV-I 54 W/m 5,1 km/h (1 Bft)
15.03.2014 09:38 7,9 C 6,7 C 95 % 1020,6 hPa 0,0 l/m 0 min 0 min 0,0 UV-I 62 W/m 15,4 km/h (3 Bft)
15.03.2014 09:40 7,9 C 6,7 C 95 % 1020,6 hPa 0,0 l/m 0 min 0 min 0,0 UV-I 58 W/m 12,9 km/h (3 Bft)
15.03.2014 09:42 7,9 C 6,7 C 95 % 1020,6 hPa 0,0 l/m 0 min 0 min 0,0 UV-I 62 W/m 7,7 km/h (2 Bft)
15.03.2014 09:44 8,0 C 6,7 C 95 % 1020,6 hPa 0,0 l/m 0 min 0 min 0,0 UV-I 63 W/m 10,3 km/h (2 Bft)
15.03.2014 09:46 8,0 C 7,2 C 95 % 1020,6 hPa 0,0 l/m 0 min 0 min 0,0 UV-I 81 W/m 10,3 km/h (2 Bft)
15.03.2014 09:48 8,1 C 7,2 C 94 % 1020,6 hPa 0,0 l/m 0 min 0 min 0,0 UV-I 70 W/m 12,9 km/h (3 Bft)
15.03.2014 09:50 8,1 C 7,2 C 94 % 1020,7 hPa 0,0 l/m 0 min 0 min 0,0 UV-I 76 W/m 18,0 km/h (3 Bft)
15.03.2014 09:52 8,1 C 7,2 C 94 % 1020,8 hPa 0,0 l/m 0 min 0 min 0,0 UV-I 86 W/m 5,1 km/h (1 Bft)
15.03.2014 09:54 8,1 C 7,2 C 94 % 1020,9 hPa 0,0 l/m 0 min 0 min 0,0 UV-I 83 W/m 12,9 km/h (3 Bft)
15.03.2014 09:56 8,1 C 7,2 C 94 % 1020,8 hPa 0,0 l/m 0 min 0 min 0,0 UV-I 123 W/m 5,1 km/h (1 Bft)
15.03.2014 09:58 8,2 C 7,2 C 94 % 1020,8 hPa 0,0 l/m 0 min 0 min 0,0 UV-I 142 W/m 0,0 km/h (0 Bft)
15.03.2014 10:00 8,2 C 7,2 C 94 % 1020,9 hPa 0,0 l/m 0 min 0 min 0,0 UV-I 132 W/m 10,3 km/h (2 Bft)
15.03.2014 10:02 8,3 C 7,2 C 94 % 1020,7 hPa 0,0 l/m 0 min 0 min 0,0 UV-I 97 W/m 7,7 km/h (2 Bft)
15.03.2014 10:04 8,3 C 7,2 C 94 % 1020,7 hPa 0,0 l/m 0 min 0 min 0,0 UV-I 90 W/m 15,4 km/h (3 Bft)
15.03.2014 10:06 8,3 C 7,2 C 94 % 1020,7 hPa 0,0 l/m 0 min 0 min 0,0 UV-I 81 W/m 10,3 km/h (2 Bft)
15.03.2014 10:08 8,2 C 7,2 C 94 % 1020,7 hPa 0,0 l/m 0 min 0 min 0,0 UV-I 72 W/m 7,7 km/h (2 Bft)
15.03.2014 10:10 8,2 C 7,2 C 93 % 1020,7 hPa 0,0 l/m 0 min 0 min 0,0 UV-I 69 W/m 12,9 km/h (3 Bft)
15.03.2014 10:12 8,2 C 7,2 C 93 % 1020,6 hPa 0,0 l/m 0 min 0 min 0,0 UV-I 65 W/m 5,1 km/h (1 Bft)
15.03.2014 10:14 8,2 C 7,2 C 93 % 1020,8 hPa 0,0 l/m 0 min 0 min 0,0 UV-I 46 W/m 12,9 km/h (3 Bft)
15.03.2014 10:16 8,2 C 7,2 C 93 % 1020,9 hPa 0,0 l/m 0 min 2 min 0,0 UV-I 54 W/m 15,4 km/h (3 Bft)
15.03.2014 10:18 8,2 C 6,7 C 97 % 1020,9 hPa 0,0 l/m 0 min 2 min 0,0 UV-I 58 W/m 12,9 km/h (3 Bft)
15.03.2014 10:20 8,2 C 6,7 C 97 % 1020,9 hPa 0,0 l/m 0 min 2 min 0,0 UV-I 76 W/m 12,9 km/h (3 Bft)
15.03.2014 10:22 8,1 C 6,7 C 93 % 1020,9 hPa 0,0 l/m 0 min 2 min 0,0 UV-I 77 W/m 5,1 km/h (1 Bft)
15.03.2014 10:24 8,1 C 6,7 C 93 % 1020,9 hPa 0,0 l/m 0 min 2 min 0,0 UV-I 97 W/m 7,7 km/h (2 Bft)
15.03.2014 10:26 8,1 C 7,2 C 93 % 1020,8 hPa 0,0 l/m 0 min 2 min 0,0 UV-I 109 W/m 7,7 km/h (2 Bft)
15.03.2014 10:28 8,1 C 7,2 C 93 % 1020,7 hPa 0,0 l/m 0 min 0 min 0,0 UV-I 130 W/m 12,9 km/h (3 Bft)
15.03.2014 10:30 8,1 C 7,2 C 94 % 1020,6 hPa 0,0 l/m 0 min 2 min 0,0 UV-I 156 W/m 10,3 km/h (2 Bft)
15.03.2014 10:32 8,2 C 7,2 C 94 % 1020,6 hPa 0,0 l/m 2 min 0 min 0,5 UV-I 394 W/m 15,4 km/h (3 Bft)
15.03.2014 10:34 8,3 C 7,2 C 94 % 1020,7 hPa 0,0 l/m 2 min 0 min 0,8 UV-I 394 W/m 18,0 km/h (3 Bft)
15.03.2014 10:36 8,6 C 7,8 C 94 % 1020,8 hPa 0,0 l/m 2 min 0 min 0,5 UV-I 288 W/m 20,6 km/h (4 Bft)
15.03.2014 10:38 8,9 C 7,8 C 94 % 1020,8 hPa 0,0 l/m 2 min 0 min 1,0 UV-I 288 W/m 10,3 km/h (2 Bft)
15.03.2014 10:40 9,1 C 8,3 C 94 % 1020,9 hPa 0,0 l/m 2 min 0 min 0,7 UV-I 527 W/m 15,4 km/h (3 Bft)
15.03.2014 10:42 9,4 C 8,9 C 94 % 1021,1 hPa 0,0 l/m 2 min 0 min 0,7 UV-I 520 W/m 15,4 km/h (3 Bft)
15.03.2014 10:44 9,5 C 8,3 C 93 % 1021,0 hPa 0,0 l/m 2 min 0 min 0,0 UV-I 520 W/m 20,6 km/h (4 Bft)
15.03.2014 10:46 9,6 C 8,3 C 92 % 1020,8 hPa 0,0 l/m 0 min 0 min 0,0 UV-I 209 W/m 7,7 km/h (2 Bft)
15.03.2014 10:48 9,6 C 7,8 C 90 % 1021,0 hPa 0,0 l/m 0 min 0 min 0,0 UV-I 158 W/m 20,6 km/h (4 Bft)
15.03.2014 10:50 9,5 C 7,8 C 89 % 1021,0 hPa 0,0 l/m 0 min 0 min 0,0 UV-I 95 W/m 7,7 km/h (2 Bft)
15.03.2014 10:52 9,4 C 7,8 C 88 % 1021,1 hPa 0,0 l/m 0 min 0 min 0,0 UV-I 54 W/m 7,7 km/h (2 Bft)
15.03.2014 10:54 9,3 C 7,2 C 88 % 1021,1 hPa 0,0 l/m 0 min 2 min 0,0 UV-I 46 W/m 7,7 km/h (2 Bft)
15.03.2014 10:56 9,2 C 7,2 C 88 % 1021,2 hPa 0,0 l/m 0 min 2 min 0,0 UV-I 42 W/m 15,4 km/h (3 Bft)
15.03.2014 10:58 9,2 C 7,2 C 88 % 1021,1 hPa 0,0 l/m 0 min 2 min 0,0 UV-I 47 W/m 10,3 km/h (2 Bft)
15.03.2014 11:00 9,1 C 7,2 C 88 % 1021,2 hPa 0,0 l/m 0 min 2 min 0,0 UV-I 69 W/m 15,4 km/h (3 Bft)
15.03.2014 11:02 8,9 C 6,7 C 89 % 1021,2 hPa 0,2 l/m 0 min 2 min 0,0 UV-I 74 W/m 23,2 km/h (4 Bft)
15.03.2014 11:04 8,8 C 6,7 C 89 % 1021,4 hPa 0,0 l/m 0 min 2 min 0,0 UV-I 98 W/m 12,9 km/h (3 Bft)
15.03.2014 11:06 8,7 C 6,7 C 89 % 1021,3 hPa 0,0 l/m 0 min 2 min 0,0 UV-I 97 W/m 15,4 km/h (3 Bft)
15.03.2014 11:08 8,6 C 7,2 C 89 % 1021,3 hPa 0,0 l/m 0 min 0 min 0,0 UV-I 190 W/m 15,4 km/h (3 Bft)
15.03.2014 11:10 8,7 C 7,2 C 90 % 1021,4 hPa 0,0 l/m 0 min 0 min 0,0 UV-I 213 W/m 7,7 km/h (2 Bft)
15.03.2014 11:12 8,7 C 7,2 C 90 % 1021,4 hPa 0,0 l/m 0 min 2 min 0,6 UV-I 206 W/m 18,0 km/h (3 Bft)
15.03.2014 11:14 8,9 C 7,8 C 90 % 1021,3 hPa 0,0 l/m 0 min 0 min 1,2 UV-I 281 W/m 12,9 km/h (3 Bft)
15.03.2014 11:16 9,1 C 7,8 C 91 % 1021,3 hPa 0,0 l/m 2 min 0 min 0,6 UV-I 566 W/m 12,9 km/h (3 Bft)
15.03.2014 11:18 9,3 C 8,3 C 91 % 1021,3 hPa 0,0 l/m 2 min 0 min 0,7 UV-I 318 W/m 10,3 km/h (2 Bft)
15.03.2014 11:20 9,6 C 8,3 C 90 % 1021,2 hPa 0,0 l/m 2 min 0 min 1,0 UV-I 571 W/m 12,9 km/h (3 Bft)
15.03.2014 11:22 9,7 C 8,3 C 89 % 1021,2 hPa 0,0 l/m 0 min 0 min 0,0 UV-I 301 W/m 20,6 km/h (4 Bft)
15.03.2014 11:24 9,6 C 7,8 C 87 % 1021,2 hPa 0,0 l/m 0 min 0 min 0,0 UV-I 111 W/m 23,2 km/h (4 Bft)
15.03.2014 11:26 9,6 C 7,2 C 85 % 1021,5 hPa 0,0 l/m 0 min 0 min 0,0 UV-I 111 W/m 38,6 km/h (5 Bft)
15.03.2014 11:28 9,4 C 7,2 C 84 % 1021,3 hPa 0,0 l/m 0 min 0 min 0,0 UV-I 139 W/m 20,6 km/h (4 Bft)
15.03.2014 11:30 9,4 C 7,2 C 84 % 1021,4 hPa 0,0 l/m 0 min 0 min 0,0 UV-I 149 W/m 20,6 km/h (4 Bft)
15.03.2014 11:32 9,4 C 7,2 C 84 % 1021,4 hPa 0,0 l/m 0 min 0 min 0,6 UV-I 193 W/m 10,3 km/h (2 Bft)
15.03.2014 11:34 9,5 C 7,8 C 85 % 1021,5 hPa 0,0 l/m 0 min 0 min 0,7 UV-I 243 W/m 15,4 km/h (3 Bft)
15.03.2014 11:36 9,6 C 7,8 C 85 % 1021,6 hPa 0,0 l/m 2 min 0 min 1,3 UV-I 494 W/m 12,9 km/h (3 Bft)
15.03.2014 11:38 9,8 C 8,3 C 84 % 1021,6 hPa 0,0 l/m 2 min 0 min 1,5 UV-I 527 W/m 15,4 km/h (3 Bft)
15.03.2014 11:40 10,2 C 8,9 C 84 % 1021,5 hPa 0,0 l/m 2 min 0 min 1,7 UV-I 621 W/m 12,9 km/h (3 Bft)
15.03.2014 11:42 10,5 C 9,4 C 84 % 1021,5 hPa 0,0 l/m 2 min 0 min 1,5 UV-I 587 W/m 7,7 km/h (2 Bft)
15.03.2014 11:44 10,7 C 9,4 C 82 % 1021,4 hPa 0,0 l/m 2 min 0 min 0,7 UV-I 417 W/m 20,6 km/h (4 Bft)
15.03.2014 11:46 10,7 C 8,9 C 79 % 1021,3 hPa 0,0 l/m 0 min 0 min 0,0 UV-I 229 W/m 18,0 km/h (3 Bft)
15.03.2014 11:48 10,6 C 8,9 C 79 % 1021,4 hPa 0,0 l/m 0 min 0 min 0,0 UV-I 202 W/m 20,6 km/h (4 Bft)
15.03.2014 11:50 10,4 C 8,3 C 78 % 1021,4 hPa 0,0 l/m 0 min 0 min 0,5 UV-I 229 W/m 23,2 km/h (4 Bft)
15.03.2014 11:52 10,3 C 8,3 C 76 % 1021,4 hPa 0,0 l/m 0 min 0 min 0,5 UV-I 244 W/m 23,2 km/h (4 Bft)
15.03.2014 11:54 10,3 C 8,3 C 75 % 1021,4 hPa 0,0 l/m 0 min 0 min 0,8 UV-I 244 W/m 36,0 km/h (5 Bft)
15.03.2014 11:56 10,3 C 8,3 C 75 % 1021,4 hPa 0,0 l/m 0 min 0 min 0,5 UV-I 248 W/m 30,9 km/h (5 Bft)
15.03.2014 11:58 10,3 C 8,3 C 73 % 1021,4 hPa 0,0 l/m 0 min 0 min 0,5 UV-I 213 W/m 23,2 km/h (4 Bft)
15.03.2014 12:00 10,3 C 8,3 C 71 % 1021,3 hPa 0,0 l/m 0 min 2 min 0,0 UV-I 202 W/m 28,3 km/h (4 Bft)
15.03.2014 12:02 10,3 C 8,3 C 73 % 1021,4 hPa 0,0 l/m 0 min 0 min 0,0 UV-I 185 W/m 0,0 km/h (0 Bft)
15.03.2014 12:04 10,3 C 8,3 C 74 % 1021,4 hPa 0,0 l/m 0 min 0 min 0,0 UV-I 199 W/m 12,9 km/h (3 Bft)
15.03.2014 12:06 10,3 C 8,9 C 73 % 1021,4 hPa 0,0 l/m 0 min 0 min 0,5 UV-I 220 W/m 25,7 km/h (4 Bft)
15.03.2014 12:08 10,2 C 8,3 C 71 % 1021,4 hPa 0,0 l/m 0 min 0 min 0,7 UV-I 232 W/m 25,7 km/h (4 Bft)
15.03.2014 12:10 10,2 C 8,9 C 71 % 1021,7 hPa 0,0 l/m 0 min 0 min 0,8 UV-I 299 W/m 15,4 km/h (3 Bft)
15.03.2014 12:12 10,3 C 8,9 C 71 % 1021,5 hPa 0,0 l/m 0 min 0 min 0,6 UV-I 209 W/m 18,0 km/h (3 Bft)
15.03.2014 12:14 10,4 C 8,9 C 73 % 1021,5 hPa 0,0 l/m 0 min 0 min 0,5 UV-I 197 W/m 12,9 km/h (3 Bft)
15.03.2014 12:16 10,4 C 8,9 C 71 % 1021,6 hPa 0,0 l/m 0 min 0 min 0,0 UV-I 132 W/m 18,0 km/h (3 Bft)
15.03.2014 12:18 10,3 C 8,9 C 71 % 1021,5 hPa 0,0 l/m 0 min 0 min 0,6 UV-I 137 W/m 20,6 km/h (4 Bft)
15.03.2014 12:20 10,3 C 8,3 C 72 % 1021,5 hPa 0,0 l/m 0 min 0 min 0,8 UV-I 137 W/m 15,4 km/h (3 Bft)
15.03.2014 12:22 10,3 C 8,9 C 73 % 1021,5 hPa 0,0 l/m 0 min 0 min 0,9 UV-I 137 W/m 18,0 km/h (3 Bft)
15.03.2014 12:24 10,3 C 8,9 C 73 % 1021,5 hPa 0,0 l/m 2 min 0 min 0,9 UV-I 584 W/m 10,3 km/h (2 Bft)
15.03.2014 12:26 10,6 C 9,4 C 73 % 1021,6 hPa 0,0 l/m 2 min 0 min 0,9 UV-I 580 W/m 15,4 km/h (3 Bft)
15.03.2014 12:28 10,7 C 9,4 C 71 % 1021,6 hPa 0,0 l/m 2 min 0 min 0,9 UV-I 610 W/m 20,6 km/h (4 Bft)
15.03.2014 12:30 11,1 C 10,0 C 73 % 1021,5 hPa 0,0 l/m 2 min 0 min 1,0 UV-I 635 W/m 20,6 km/h (4 Bft)
15.03.2014 12:32 11,3 C 10,0 C 70 % 1021,5 hPa 0,0 l/m 2 min 0 min 0,9 UV-I 603 W/m 28,3 km/h (4 Bft)
15.03.2014 12:34 11,2 C 10,0 C 70 % 1021,4 hPa 0,0 l/m 2 min 0 min 1,0 UV-I 693 W/m 20,6 km/h (4 Bft)
15.03.2014 12:36 11,3 C 10,6 C 70 % 1021,3 hPa 0,0 l/m 2 min 0 min 0,9 UV-I 693 W/m 18,0 km/h (3 Bft)
15.03.2014 12:38 11,4 C 10,6 C 69 % 1021,3 hPa 0,0 l/m 2 min 0 min 0,9 UV-I 381 W/m 20,6 km/h (4 Bft)
15.03.2014 12:40 11,4 C 10,6 C 69 % 1021,3 hPa 0,0 l/m 2 min 0 min 0,9 UV-I 381 W/m 15,4 km/h (3 Bft)
15.03.2014 12:42 11,5 C 10,6 C 70 % 1021,3 hPa 0,0 l/m 2 min 0 min 0,7 UV-I 381 W/m 23,2 km/h (4 Bft)
15.03.2014 12:44 11,3 C 10,0 C 68 % 1021,2 hPa 0,0 l/m 0 min 0 min 0,8 UV-I 128 W/m 38,6 km/h (5 Bft)
15.03.2014 12:46 11,2 C 10,0 C 68 % 1021,3 hPa 0,0 l/m 2 min 0 min 1,5 UV-I 570 W/m 28,3 km/h (4 Bft)
15.03.2014 12:48 11,3 C 10,0 C 69 % 1021,3 hPa 0,0 l/m 2 min 0 min 1,7 UV-I 619 W/m 20,6 km/h (4 Bft)
15.03.2014 12:50 11,5 C 10,6 C 66 % 1021,2 hPa 0,0 l/m 2 min 0 min 1,6 UV-I 661 W/m 30,9 km/h (5 Bft)
15.03.2014 12:52 11,8 C 11,1 C 66 % 1021,3 hPa 0,0 l/m 2 min 0 min 1,8 UV-I 661 W/m 18,0 km/h (3 Bft)
15.03.2014 12:54 12,0 C 11,1 C 65 % 1021,3 hPa 0,0 l/m 2 min 0 min 1,7 UV-I 638 W/m 30,9 km/h (5 Bft)
15.03.2014 12:56 12,2 C 11,1 C 64 % 1021,2 hPa 0,0 l/m 2 min 0 min 1,8 UV-I 661 W/m 41,2 km/h (6 Bft)
15.03.2014 12:58 12,2 C 11,7 C 65 % 1021,3 hPa 0,0 l/m 2 min 0 min 1,6 UV-I 677 W/m 25,7 km/h (4 Bft)
15.03.2014 13:00 12,2 C 11,1 C 64 % 1021,4 hPa 0,0 l/m 0 min 0 min 0,7 UV-I 220 W/m 18,0 km/h (3 Bft)
15.03.2014 13:02 11,9 C 11,1 C 64 % 1021,3 hPa 0,0 l/m 0 min 0 min 0,7 UV-I 213 W/m 20,6 km/h (4 Bft)
15.03.2014 13:06 11,7 C 10,6 C 65 % 1021,3 hPa 0,0 l/m 0 min 0 min 0,7 UV-I 174 W/m 18,0 km/h (3 Bft)
15.03.2014 13:08 11,5 C 10,6 C 65 % 1021,3 hPa 0,0 l/m 0 min 0 min 0,9 UV-I 221 W/m 12,9 km/h (3 Bft)
15.03.2014 13:10 11,4 C 10,0 C 65 % 1021,3 hPa 0,0 l/m 0 min 0 min 0,9 UV-I 204 W/m 25,7 km/h (4 Bft)
15.03.2014 13:12 11,3 C 10,6 C 65 % 1021,3 hPa 0,0 l/m 2 min 0 min 1,7 UV-I 589 W/m 20,6 km/h (4 Bft)
15.03.2014 13:14 11,4 C 10,6 C 65 % 1021,3 hPa 0,0 l/m 2 min 0 min 1,6 UV-I 599 W/m 23,2 km/h (4 Bft)
15.03.2014 13:16 11,7 C 11,1 C 67 % 1021,3 hPa 0,0 l/m 2 min 0 min 1,7 UV-I 596 W/m 15,4 km/h (3 Bft)
15.03.2014 13:18 11,9 C 11,1 C 65 % 1021,2 hPa 0,0 l/m 2 min 0 min 1,6 UV-I 570 W/m 23,2 km/h (4 Bft)
15.03.2014 13:20 12,0 C 11,1 C 64 % 1021,2 hPa 0,0 l/m 2 min 0 min 1,1 UV-I 566 W/m 33,5 km/h (5 Bft)
15.03.2014 13:22 12,1 C 11,1 C 64 % 1021,2 hPa 0,0 l/m 0 min 0 min 0,9 UV-I 244 W/m 18,0 km/h (3 Bft)
15.03.2014 13:24 12,1 C 11,1 C 62 % 1021,1 hPa 0,0 l/m 2 min 0 min 1,5 UV-I 339 W/m 25,7 km/h (4 Bft)
15.03.2014 13:26 12,0 C 11,7 C 63 % 1021,2 hPa 0,0 l/m 2 min 0 min 1,5 UV-I 635 W/m 25,7 km/h (4 Bft)
15.03.2014 13:28 12,1 C 11,7 C 63 % 1021,2 hPa 0,0 l/m 2 min 0 min 1,4 UV-I 612 W/m 33,5 km/h (5 Bft)
15.03.2014 13:30 12,2 C 11,7 C 61 % 1021,2 hPa 0,0 l/m 2 min 0 min 1,6 UV-I 679 W/m 28,3 km/h (4 Bft)
15.03.2014 13:32 12,4 C 11,7 C 62 % 1021,2 hPa 0,0 l/m 2 min 0 min 1,5 UV-I 682 W/m 20,6 km/h (4 Bft)
15.03.2014 13:34 12,6 C 12,2 C 61 % 1021,1 hPa 0,0 l/m 2 min 0 min 0,9 UV-I 482 W/m 20,6 km/h (4 Bft)
15.03.2014 13:36 12,7 C 11,7 C 61 % 1021,0 hPa 0,0 l/m 0 min 0 min 0,5 UV-I 214 W/m 12,9 km/h (3 Bft)
15.03.2014 13:38 12,6 C 11,7 C 60 % 1021,0 hPa 0,0 l/m 0 min 0 min 0,0 UV-I 267 W/m 18,0 km/h (3 Bft)
15.03.2014 13:40 12,4 C 11,1 C 61 % 1021,1 hPa 0,0 l/m 0 min 0 min 0,0 UV-I 188 W/m 25,7 km/h (4 Bft)
15.03.2014 13:42 12,2 C 11,1 C 61 % 1021,1 hPa 0,0 l/m 0 min 0 min 0,0 UV-I 176 W/m 18,0 km/h (3 Bft)
15.03.2014 13:44 11,9 C 11,1 C 62 % 1021,0 hPa 0,0 l/m 0 min 0 min 0,0 UV-I 190 W/m 28,3 km/h (4 Bft)
15.03.2014 13:46 11,7 C 10,6 C 61 % 1021,0 hPa 0,0 l/m 0 min 0 min 0,0 UV-I 162 W/m 23,2 km/h (4 Bft)
15.03.2014 13:48 11,6 C 10,6 C 62 % 1021,0 hPa 0,0 l/m 0 min 0 min 0,0 UV-I 258 W/m 30,9 km/h (5 Bft)
15.03.2014 13:50 11,5 C 10,6 C 64 % 1021,0 hPa 0,0 l/m 0 min 0 min 0,0 UV-I 204 W/m 23,2 km/h (4 Bft)
15.03.2014 13:52 11,4 C 10,6 C 64 % 1021,1 hPa 0,0 l/m 0 min 0 min 0,7 UV-I 257 W/m 20,6 km/h (4 Bft)
15.03.2014 13:54 11,4 C 10,6 C 63 % 1021,0 hPa 0,0 l/m 0 min 0 min 0,6 UV-I 257 W/m 28,3 km/h (4 Bft)
15.03.2014 13:56 11,4 C 10,6 C 64 % 1021,0 hPa 0,0 l/m 0 min 0 min 0,5 UV-I 204 W/m 15,4 km/h (3 Bft)
15.03.2014 13:58 11,4 C 10,6 C 65 % 1021,0 hPa 0,0 l/m 0 min 0 min 0,6 UV-I 207 W/m 23,2 km/h (4 Bft)
15.03.2014 14:00 11,4 C 10,6 C 65 % 1021,0 hPa 0,0 l/m 0 min 0 min 0,7 UV-I 232 W/m 18,0 km/h (3 Bft)
15.03.2014 14:02 11,4 C 10,6 C 64 % 1020,9 hPa 0,0 l/m 0 min 0 min 0,7 UV-I 229 W/m 28,3 km/h (4 Bft)
15.03.2014 14:06 11,3 C 10,6 C 65 % 1020,9 hPa 0,0 l/m 0 min 0 min 0,0 UV-I 214 W/m 25,7 km/h (4 Bft)
15.03.2014 14:08 11,3 C 10,6 C 66 % 1021,0 hPa 0,0 l/m 0 min 0 min 0,0 UV-I 225 W/m 15,4 km/h (3 Bft)
15.03.2014 14:10 11,3 C 10,6 C 65 % 1020,9 hPa 0,0 l/m 0 min 0 min 0,5 UV-I 265 W/m 25,7 km/h (4 Bft)
15.03.2014 14:12 11,3 C 10,6 C 65 % 1021,0 hPa 0,0 l/m 0 min 0 min 0,0 UV-I 255 W/m 20,6 km/h (4 Bft)
15.03.2014 14:14 11,3 C 10,6 C 64 % 1021,0 hPa 0,0 l/m 0 min 0 min 0,0 UV-I 223 W/m 18,0 km/h (3 Bft)
15.03.2014 14:16 11,3 C 10,6 C 64 % 1021,0 hPa 0,0 l/m 0 min 0 min 0,0 UV-I 207 W/m 15,4 km/h (3 Bft)
15.03.2014 14:18 11,3 C 10,6 C 63 % 1021,0 hPa 0,0 l/m 0 min 0 min 0,5 UV-I 237 W/m 20,6 km/h (4 Bft)
15.03.2014 14:20 11,4 C 11,1 C 63 % 1020,9 hPa 0,0 l/m 0 min 0 min 0,5 UV-I 229 W/m 12,9 km/h (3 Bft)
15.03.2014 14:22 11,4 C 11,1 C 65 % 1020,9 hPa 0,0 l/m 0 min 0 min 0,5 UV-I 225 W/m 23,2 km/h (4 Bft)
15.03.2014 14:24 11,4 C 10,6 C 63 % 1020,8 hPa 0,0 l/m 0 min 0 min 0,0 UV-I 209 W/m 30,9 km/h (5 Bft)
15.03.2014 14:26 11,4 C 10,6 C 63 % 1020,9 hPa 0,0 l/m 0 min 0 min 0,0 UV-I 216 W/m 10,3 km/h (2 Bft)
15.03.2014 14:28 11,4 C 11,1 C 64 % 1020,9 hPa 0,0 l/m 0 min 0 min 0,0 UV-I 223 W/m 20,6 km/h (4 Bft)
15.03.2014 14:30 11,3 C 10,6 C 63 % 1021,0 hPa 0,0 l/m 0 min 0 min 0,0 UV-I 229 W/m 28,3 km/h (4 Bft)
15.03.2014 14:32 11,3 C 10,6 C 64 % 1021,0 hPa 0,0 l/m 0 min 0 min 0,0 UV-I 181 W/m 20,6 km/h (4 Bft)
15.03.2014 14:34 11,3 C 10,6 C 63 % 1021,0 hPa 0,0 l/m 0 min 0 min 0,0 UV-I 160 W/m 15,4 km/h (3 Bft)
15.03.2014 14:36 11,3 C 10,6 C 64 % 1021,0 hPa 0,0 l/m 0 min 0 min 0,0 UV-I 156 W/m 12,9 km/h (3 Bft)
15.03.2014 14:38 11,2 C 10,6 C 64 % 1021,1 hPa 0,0 l/m 0 min 0 min 0,0 UV-I 200 W/m 15,4 km/h (3 Bft)
15.03.2014 14:40 11,2 C 10,6 C 64 % 1021,1 hPa 0,0 l/m 0 min 0 min 0,0 UV-I 220 W/m 15,4 km/h (3 Bft)
15.03.2014 14:42 11,3 C 10,6 C 65 % 1021,1 hPa 0,0 l/m 0 min 0 min 0,5 UV-I 265 W/m 15,4 km/h (3 Bft)
15.03.2014 14:44 11,3 C 11,1 C 65 % 1021,2 hPa 0,0 l/m 2 min 0 min 0,5 UV-I 287 W/m 30,9 km/h (5 Bft)
15.03.2014 14:46 11,4 C 11,1 C 65 % 1021,1 hPa 0,0 l/m 0 min 0 min 0,0 UV-I 246 W/m 7,7 km/h (2 Bft)
15.03.2014 14:48 11,4 C 11,1 C 64 % 1021,1 hPa 0,0 l/m 2 min 0 min 0,0 UV-I 297 W/m 25,7 km/h (4 Bft)
15.03.2014 14:50 11,4 C 10,6 C 64 % 1021,2 hPa 0,0 l/m 0 min 0 min 0,0 UV-I 199 W/m 30,9 km/h (5 Bft)
15.03.2014 14:52 11,4 C 10,6 C 65 % 1021,2 hPa 0,0 l/m 0 min 0 min 0,0 UV-I 176 W/m 12,9 km/h (3 Bft)
15.03.2014 14:54 11,4 C 10,6 C 65 % 1021,2 hPa 0,0 l/m 0 min 0 min 0,0 UV-I 162 W/m 23,2 km/h (4 Bft)
15.03.2014 14:56 11,4 C 10,6 C 65 % 1021,3 hPa 0,0 l/m 0 min 0 min 0,0 UV-I 130 W/m 23,2 km/h (4 Bft)
15.03.2014 14:58 11,3 C 10,6 C 64 % 1021,2 hPa 0,0 l/m 0 min 0 min 0,0 UV-I 102 W/m 25,7 km/h (4 Bft)
15.03.2014 15:00 11,2 C 10,0 C 65 % 1021,3 hPa 0,0 l/m 0 min 0 min 0,0 UV-I 84 W/m 18,0 km/h (3 Bft)
15.03.2014 15:02 11,1 C 10,0 C 65 % 1021,3 hPa 0,0 l/m 0 min 0 min 0,0 UV-I 88 W/m 30,9 km/h (5 Bft)
15.03.2014 15:06 11,0 C 10,0 C 67 % 1021,3 hPa 0,0 l/m 0 min 0 min 0,0 UV-I 142 W/m 23,2 km/h (4 Bft)
15.03.2014 15:08 10,9 C 10,0 C 67 % 1021,3 hPa 0,0 l/m 0 min 0 min 0,0 UV-I 183 W/m 20,6 km/h (4 Bft)
15.03.2014 15:10 10,9 C 10,6 C 67 % 1021,2 hPa 0,0 l/m 0 min 0 min 0,0 UV-I 255 W/m 12,9 km/h (3 Bft)
15.03.2014 15:12 11,1 C 10,6 C 68 % 1021,3 hPa 0,0 l/m 0 min 0 min 0,0 UV-I 236 W/m 10,3 km/h (2 Bft)
15.03.2014 15:14 11,2 C 10,6 C 67 % 1021,2 hPa 0,0 l/m 2 min 0 min 0,8 UV-I 320 W/m 18,0 km/h (3 Bft)
15.03.2014 15:16 11,5 C 11,1 C 68 % 1021,1 hPa 0,0 l/m 2 min 0 min 0,7 UV-I 352 W/m 12,9 km/h (3 Bft)
15.03.2014 15:18 11,8 C 11,7 C 68 % 1021,1 hPa 0,0 l/m 0 min 0 min 0,5 UV-I 255 W/m 18,0 km/h (3 Bft)
15.03.2014 15:20 11,9 C 11,1 C 66 % 1021,2 hPa 0,0 l/m 0 min 0 min 0,0 UV-I 211 W/m 15,4 km/h (3 Bft)
15.03.2014 15:22 11,8 C 11,1 C 66 % 1021,1 hPa 0,0 l/m 0 min 0 min 0,0 UV-I 220 W/m 20,6 km/h (4 Bft)
15.03.2014 15:24 11,7 C 11,1 C 66 % 1021,0 hPa 0,0 l/m 0 min 0 min 0,0 UV-I 230 W/m 15,4 km/h (3 Bft)
15.03.2014 15:26 11,7 C 11,1 C 66 % 1021,0 hPa 0,0 l/m 0 min 0 min 0,0 UV-I 218 W/m 18,0 km/h (3 Bft)
15.03.2014 15:28 11,6 C 11,1 C 66 % 1021,2 hPa 0,0 l/m 0 min 0 min 0,0 UV-I 171 W/m 23,2 km/h (4 Bft)
15.03.2014 15:30 11,5 C 10,6 C 66 % 1021,3 hPa 0,0 l/m 0 min 0 min 0,0 UV-I 139 W/m 23,2 km/h (4 Bft)
15.03.2014 15:32 11,4 C 10,6 C 65 % 1021,3 hPa 0,0 l/m 0 min 0 min 0,0 UV-I 137 W/m 18,0 km/h (3 Bft)
15.03.2014 15:34 11,3 C 10,6 C 66 % 1021,2 hPa 0,0 l/m 0 min 0 min 0,0 UV-I 134 W/m 10,3 km/h (2 Bft)
15.03.2014 15:36 11,2 C 10,6 C 67 % 1021,2 hPa 0,0 l/m 0 min 0 min 0,0 UV-I 137 W/m 15,4 km/h (3 Bft)
15.03.2014 15:38 11,2 C 10,6 C 67 % 1021,2 hPa 0,0 l/m 0 min 0 min 0,0 UV-I 130 W/m 12,9 km/h (3 Bft)
15.03.2014 15:40 11,2 C 10,6 C 68 % 1021,3 hPa 0,0 l/m 0 min 0 min 0,0 UV-I 116 W/m 18,0 km/h (3 Bft)
15.03.2014 15:42 11,2 C 10,0 C 68 % 1021,3 hPa 0,0 l/m 0 min 0 min 0,0 UV-I 95 W/m 20,6 km/h (4 Bft)
15.03.2014 15:44 11,1 C 10,0 C 69 % 1021,3 hPa 0,0 l/m 0 min 0 min 0,0 UV-I 83 W/m 18,0 km/h (3 Bft)
15.03.2014 15:46 11,0 C 10,0 C 69 % 1021,3 hPa 0,0 l/m 0 min 0 min 0,0 UV-I 79 W/m 15,4 km/h (3 Bft)
15.03.2014 15:48 11,0 C 10,0 C 69 % 1021,3 hPa 0,0 l/m 0 min 0 min 0,0 UV-I 113 W/m 18,0 km/h (3 Bft)
15.03.2014 15:50 10,9 C 10,0 C 69 % 1021,3 hPa 0,0 l/m 0 min 0 min 0,0 UV-I 172 W/m 10,3 km/h (2 Bft)
15.03.2014 15:52 10,9 C 10,0 C 69 % 1021,3 hPa 0,0 l/m 2 min 0 min 0,0 UV-I 343 W/m 28,3 km/h (4 Bft)
15.03.2014 15:54 11,1 C 10,6 C 69 % 1021,3 hPa 0,0 l/m 2 min 0 min 0,0 UV-I 359 W/m 10,3 km/h (2 Bft)
15.03.2014 15:56 11,3 C 10,6 C 69 % 1021,3 hPa 0,0 l/m 0 min 0 min 0,0 UV-I 151 W/m 18,0 km/h (3 Bft)
15.03.2014 15:58 11,2 C 10,6 C 69 % 1021,2 hPa 0,0 l/m 0 min 0 min 0,0 UV-I 148 W/m 15,4 km/h (3 Bft)
15.03.2014 16:00 11,2 C 10,0 C 69 % 1021,2 hPa 0,0 l/m 0 min 0 min 0,0 UV-I 169 W/m 18,0 km/h (3 Bft)
15.03.2014 16:02 11,2 C 10,6 C 69 % 1021,1 hPa 0,0 l/m 2 min 0 min 0,0 UV-I 297 W/m 23,2 km/h (4 Bft)
15.03.2014 16:06 11,1 C 10,0 C 69 % 1020,9 hPa 0,0 l/m 0 min 0 min 0,0 UV-I 127 W/m 23,2 km/h (4 Bft)
15.03.2014 16:08 11,1 C 10,0 C 69 % 1021,0 hPa 0,0 l/m 0 min 0 min 0,0 UV-I 134 W/m 25,7 km/h (4 Bft)
15.03.2014 16:10 11,1 C 10,0 C 69 % 1021,0 hPa 0,0 l/m 0 min 0 min 0,0 UV-I 137 W/m 28,3 km/h (4 Bft)
15.03.2014 16:12 11,1 C 10,0 C 69 % 1021,0 hPa 0,0 l/m 0 min 0 min 0,0 UV-I 109 W/m 15,4 km/h (3 Bft)
15.03.2014 16:14 11,1 C 10,0 C 70 % 1021,1 hPa 0,0 l/m 0 min 0 min 0,0 UV-I 86 W/m 20,6 km/h (4 Bft)
15.03.2014 16:16 11,0 C 10,0 C 69 % 1021,1 hPa 0,0 l/m 0 min 0 min 0,0 UV-I 77 W/m 18,0 km/h (3 Bft)
15.03.2014 16:18 11,1 C 10,0 C 69 % 1021,1 hPa 0,0 l/m 0 min 0 min 0,0 UV-I 84 W/m 12,9 km/h (3 Bft)
15.03.2014 16:20 11,0 C 10,0 C 69 % 1021,2 hPa 0,0 l/m 0 min 0 min 0,0 UV-I 91 W/m 15,4 km/h (3 Bft)
15.03.2014 16:22 11,1 C 10,0 C 69 % 1021,3 hPa 0,0 l/m 0 min 0 min 0,0 UV-I 116 W/m 7,7 km/h (2 Bft)
15.03.2014 16:24 11,1 C 10,0 C 69 % 1021,3 hPa 0,0 l/m 0 min 0 min 0,0 UV-I 128 W/m 15,4 km/h (3 Bft)
15.03.2014 16:26 11,1 C 10,0 C 69 % 1021,3 hPa 0,0 l/m 0 min 0 min 0,0 UV-I 174 W/m 15,4 km/h (3 Bft)
15.03.2014 16:28 11,1 C 10,0 C 68 % 1021,3 hPa 0,0 l/m 0 min 0 min 0,0 UV-I 127 W/m 23,2 km/h (4 Bft)
15.03.2014 16:30 11,2 C 10,6 C 69 % 1021,2 hPa 0,0 l/m 0 min 0 min 0,0 UV-I 120 W/m 10,3 km/h (2 Bft)
15.03.2014 16:32 11,2 C 10,6 C 68 % 1021,3 hPa 0,0 l/m 0 min 0 min 0,0 UV-I 102 W/m 10,3 km/h (2 Bft)
15.03.2014 16:34 11,2 C 10,0 C 68 % 1021,2 hPa 0,0 l/m 0 min 0 min 0,0 UV-I 105 W/m 10,3 km/h (2 Bft)
15.03.2014 16:36 11,2 C 10,0 C 68 % 1021,3 hPa 0,0 l/m 0 min 0 min 0,0 UV-I 102 W/m 18,0 km/h (3 Bft)
15.03.2014 16:38 11,2 C 10,0 C 68 % 1021,2 hPa 0,0 l/m 0 min 0 min 0,0 UV-I 139 W/m 15,4 km/h (3 Bft)
15.03.2014 16:40 11,2 C 10,0 C 68 % 1021,3 hPa 0,0 l/m 0 min 0 min 0,0 UV-I 120 W/m 25,7 km/h (4 Bft)
15.03.2014 16:42 11,2 C 10,0 C 68 % 1021,3 hPa 0,0 l/m 0 min 0 min 0,0 UV-I 134 W/m 18,0 km/h (3 Bft)
15.03.2014 16:44 11,1 C 10,0 C 68 % 1021,3 hPa 0,0 l/m 0 min 0 min 0,0 UV-I 146 W/m 23,2 km/h (4 Bft)
15.03.2014 16:46 11,1 C 10,0 C 68 % 1021,3 hPa 0,0 l/m 0 min 0 min 0,0 UV-I 127 W/m 30,9 km/h (5 Bft)
15.03.2014 16:48 11,1 C 10,0 C 68 % 1021,3 hPa 0,0 l/m 2 min 0 min 0,0 UV-I 176 W/m 23,2 km/h (4 Bft)
15.03.2014 16:50 11,2 C 10,0 C 68 % 1021,3 hPa 0,0 l/m 0 min 0 min 0,0 UV-I 130 W/m 20,6 km/h (4 Bft)
15.03.2014 16:52 11,2 C 10,0 C 68 % 1021,2 hPa 0,0 l/m 0 min 0 min 0,0 UV-I 102 W/m 7,7 km/h (2 Bft)
15.03.2014 16:54 11,2 C 10,0 C 69 % 1021,3 hPa 0,0 l/m 0 min 0 min 0,0 UV-I 86 W/m 10,3 km/h (2 Bft)
15.03.2014 16:56 11,1 C 10,0 C 69 % 1021,3 hPa 0,0 l/m 0 min 0 min 0,0 UV-I 83 W/m 23,2 km/h (4 Bft)
15.03.2014 16:58 11,1 C 10,0 C 69 % 1021,3 hPa 0,0 l/m 0 min 0 min 0,0 UV-I 104 W/m 7,7 km/h (2 Bft)
15.03.2014 17:00 11,1 C 10,0 C 69 % 1021,3 hPa 0,0 l/m 0 min 0 min 0,0 UV-I 104 W/m 12,9 km/h (3 Bft)
15.03.2014 17:02 11,1 C 10,0 C 69 % 1021,2 hPa 0,0 l/m 0 min 0 min 0,0 UV-I 98 W/m 15,4 km/h (3 Bft)
15.03.2014 17:06 10,9 C 10,0 C 70 % 1021,2 hPa 0,0 l/m 0 min 0 min 0,0 UV-I 60 W/m 12,9 km/h (3 Bft)
15.03.2014 17:08 10,9 C 9,4 C 69 % 1021,3 hPa 0,0 l/m 0 min 0 min 0,0 UV-I 62 W/m 15,4 km/h (3 Bft)
15.03.2014 17:10 10,8 C 9,4 C 69 % 1021,3 hPa 0,0 l/m 0 min 0 min 0,0 UV-I 91 W/m 7,7 km/h (2 Bft)
15.03.2014 17:12 10,8 C 9,4 C 70 % 1021,3 hPa 0,0 l/m 0 min 0 min 0,0 UV-I 74 W/m 10,3 km/h (2 Bft)
15.03.2014 17:14 10,8 C 9,4 C 70 % 1021,2 hPa 0,0 l/m 0 min 0 min 0,0 UV-I 116 W/m 10,3 km/h (2 Bft)
15.03.2014 17:16 10,8 C 9,4 C 70 % 1021,2 hPa 0,0 l/m 2 min 0 min 0,0 UV-I 125 W/m 7,7 km/h (2 Bft)
15.03.2014 17:18 10,8 C 9,4 C 70 % 1021,1 hPa 0,0 l/m 0 min 0 min 0,0 UV-I 102 W/m 2,6 km/h (1 Bft)
15.03.2014 17:20 10,8 C 9,4 C 70 % 1021,2 hPa 0,0 l/m 0 min 0 min 0,0 UV-I 90 W/m 20,6 km/h (4 Bft)
15.03.2014 17:22 10,8 C 9,4 C 70 % 1021,3 hPa 0,0 l/m 2 min 0 min 0,0 UV-I 105 W/m 33,5 km/h (5 Bft)
15.03.2014 17:24 10,8 C 9,4 C 70 % 1021,3 hPa 0,0 l/m 0 min 0 min 0,0 UV-I 95 W/m 12,9 km/h (3 Bft)
15.03.2014 17:26 10,8 C 9,4 C 70 % 1021,3 hPa 0,0 l/m 0 min 0 min 0,0 UV-I 79 W/m 12,9 km/h (3 Bft)
15.03.2014 17:28 10,8 C 9,4 C 69 % 1021,4 hPa 0,0 l/m 0 min 0 min 0,0 UV-I 54 W/m 15,4 km/h (3 Bft)
15.03.2014 17:30 10,8 C 9,4 C 69 % 1021,3 hPa 0,0 l/m 0 min 0 min 0,0 UV-I 56 W/m 23,2 km/h (4 Bft)
15.03.2014 17:32 10,8 C 9,4 C 70 % 1021,3 hPa 0,0 l/m 0 min 0 min 0,0 UV-I 49 W/m 30,9 km/h (5 Bft)
15.03.2014 17:34 10,7 C 9,4 C 69 % 1021,3 hPa 0,0 l/m 0 min 0 min 0,0 UV-I 44 W/m 20,6 km/h (4 Bft)
15.03.2014 17:36 10,7 C 9,4 C 69 % 1021,3 hPa 0,0 l/m 0 min 0 min 0,0 UV-I 46 W/m 10,3 km/h (2 Bft)
15.03.2014 17:38 10,6 C 9,4 C 70 % 1021,3 hPa 0,0 l/m 0 min 0 min 0,0 UV-I 44 W/m 10,3 km/h (2 Bft)
15.03.2014 17:40 10,6 C 9,4 C 69 % 1021,2 hPa 0,0 l/m 0 min 0 min 0,0 UV-I 37 W/m 20,6 km/h (4 Bft)
15.03.2014 17:42 10,5 C 8,9 C 70 % 1021,3 hPa 0,0 l/m 0 min 0 min 0,0 UV-I 35 W/m 7,7 km/h (2 Bft)
15.03.2014 17:44 10,5 C 8,9 C 69 % 1021,3 hPa 0,0 l/m 0 min 0 min 0,0 UV-I 33 W/m 25,7 km/h (4 Bft)
15.03.2014 17:46 10,5 C 8,9 C 69 % 1021,3 hPa 0,0 l/m 0 min 0 min 0,0 UV-I 30 W/m 23,2 km/h (4 Bft)
15.03.2014 17:48 10,5 C 8,9 C 70 % 1021,3 hPa 0,0 l/m 0 min 0 min 0,0 UV-I 28 W/m 2,6 km/h (1 Bft)
15.03.2014 17:50 10,4 C 8,9 C 71 % 1021,3 hPa 0,0 l/m 0 min 0 min 0,0 UV-I 28 W/m 10,3 km/h (2 Bft)
15.03.2014 17:52 10,4 C 8,9 C 71 % 1021,2 hPa 0,0 l/m 0 min 0 min 0,0 UV-I 30 W/m 10,3 km/h (2 Bft)
15.03.2014 17:54 10,4 C 8,9 C 71 % 1021,2 hPa 0,0 l/m 0 min 0 min 0,0 UV-I 33 W/m 5,1 km/h (1 Bft)
15.03.2014 17:56 10,4 C 8,9 C 71 % 1021,1 hPa 0,0 l/m 0 min 0 min 0,0 UV-I 33 W/m 10,3 km/h (2 Bft)
15.03.2014 17:58 10,4 C 8,9 C 71 % 1021,1 hPa 0,0 l/m 0 min 0 min 0,0 UV-I 32 W/m 10,3 km/h (2 Bft)
15.03.2014 18:00 10,4 C 8,9 C 71 % 1021,0 hPa 0,0 l/m 0 min 0 min 0,0 UV-I 28 W/m 7,7 km/h (2 Bft)
15.03.2014 18:02 10,3 C 8,9 C 70 % 1021,0 hPa 0,0 l/m 0 min 0 min 0,0 UV-I 25 W/m 12,9 km/h (3 Bft)
15.03.2014 18:06 10,3 C 8,9 C 70 % 1021,0 hPa 0,0 l/m 0 min 0 min 0,0 UV-I 23 W/m 33,5 km/h (5 Bft)
15.03.2014 18:08 10,2 C 8,9 C 70 % 1021,1 hPa 0,0 l/m 0 min 0 min 0,0 UV-I 25 W/m 18,0 km/h (3 Bft)
15.03.2014 18:10 10,2 C 8,9 C 70 % 1021,1 hPa 0,0 l/m 0 min 0 min 0,0 UV-I 25 W/m 7,7 km/h (2 Bft)
15.03.2014 18:12 10,2 C 8,9 C 70 % 1021,2 hPa 0,0 l/m 0 min 0 min 0,0 UV-I 21 W/m 15,4 km/h (3 Bft)
15.03.2014 18:14 10,2 C 8,9 C 70 % 1021,2 hPa 0,0 l/m 0 min 0 min 0,0 UV-I 18 W/m 10,3 km/h (2 Bft)
15.03.2014 18:16 10,1 C 8,9 C 71 % 1021,2 hPa 0,0 l/m 0 min 0 min 0,0 UV-I 16 W/m 0,0 km/h (0 Bft)
15.03.2014 18:18 10,1 C 8,9 C 71 % 1021,2 hPa 0,0 l/m 0 min 0 min 0,0 UV-I 14 W/m 7,7 km/h (2 Bft)
15.03.2014 18:20 10,1 C 8,9 C 71 % 1021,2 hPa 0,0 l/m 0 min 0 min 0,0 UV-I 14 W/m 5,1 km/h (1 Bft)
15.03.2014 18:22 10,1 C 8,9 C 71 % 1021,2 hPa 0,0 l/m 0 min 0 min 0,0 UV-I 12 W/m 5,1 km/h (1 Bft)
15.03.2014 18:24 10,1 C 8,9 C 72 % 1021,2 hPa 0,0 l/m 0 min 0 min 0,0 UV-I 11 W/m 0,0 km/h (0 Bft)
15.03.2014 18:26 10,1 C 8,9 C 72 % 1021,2 hPa 0,0 l/m 0 min 0 min 0,0 UV-I 9 W/m 7,7 km/h (2 Bft)
15.03.2014 18:28 10,1 C 8,9 C 72 % 1021,2 hPa 0,0 l/m 0 min 0 min 0,0 UV-I 9 W/m 7,7 km/h (2 Bft)
15.03.2014 18:30 10,0 C 8,9 C 72 % 1021,2 hPa 0,0 l/m 0 min 0 min 0,0 UV-I 9 W/m 7,7 km/h (2 Bft)
15.03.2014 18:32 10,0 C 8,9 C 73 % 1021,2 hPa 0,0 l/m 0 min 0 min 0,0 UV-I 9 W/m 10,3 km/h (2 Bft)
15.03.2014 18:34 10,0 C 8,3 C 73 % 1021,3 hPa 0,0 l/m 0 min 0 min 0,0 UV-I 7 W/m 0,0 km/h (0 Bft)
15.03.2014 18:36 10,0 C 8,3 C 73 % 1021,3 hPa 0,0 l/m 0 min 0 min 0,0 UV-I 7 W/m 0,0 km/h (0 Bft)
15.03.2014 18:38 9,9 C 8,3 C 73 % 1021,3 hPa 0,0 l/m 0 min 0 min 0,0 UV-I 5 W/m 0,0 km/h (0 Bft)
15.03.2014 18:40 9,9 C 8,3 C 73 % 1021,2 hPa 0,0 l/m 0 min 0 min 0,0 UV-I 5 W/m 2,6 km/h (1 Bft)
15.03.2014 18:42 9,9 C 8,3 C 73 % 1021,2 hPa 0,0 l/m 0 min 0 min 0,0 UV-I 0 W/m 0,0 km/h (0 Bft)
15.03.2014 18:44 9,9 C 8,3 C 74 % 1021,3 hPa 0,0 l/m 0 min 0 min 0,0 UV-I 0 W/m 0,0 km/h (0 Bft)
15.03.2014 18:46 9,9 C 8,3 C 74 % 1021,3 hPa 0,0 l/m 0 min 0 min 0,0 UV-I 5 W/m 0,0 km/h (0 Bft)
15.03.2014 18:48 9,9 C 8,3 C 74 % 1021,3 hPa 0,0 l/m 0 min 0 min 0,0 UV-I 5 W/m 12,9 km/h (3 Bft)
15.03.2014 18:50 9,8 C 8,3 C 74 % 1021,2 hPa 0,0 l/m 0 min 0 min 0,0 UV-I 0 W/m 7,7 km/h (2 Bft)
15.03.2014 18:52 9,9 C 8,3 C 74 % 1021,2 hPa 0,0 l/m 0 min 0 min 0,0 UV-I 0 W/m 0,0 km/h (0 Bft)
15.03.2014 18:54 9,8 C 8,3 C 74 % 1021,2 hPa 0,0 l/m 0 min 0 min 0,0 UV-I 0 W/m 2,6 km/h (1 Bft)
15.03.2014 18:56 9,8 C 8,3 C 74 % 1021,2 hPa 0,0 l/m 0 min 0 min 0,0 UV-I 0 W/m 0,0 km/h (0 Bft)
15.03.2014 18:58 9,8 C 8,3 C 74 % 1021,2 hPa 0,0 l/m 0 min 0 min 0,0 UV-I 0 W/m 5,1 km/h (1 Bft)
15.03.2014 19:00 9,8 C 8,3 C 74 % 1021,1 hPa 0,0 l/m 0 min 0 min 0,0 UV-I 0 W/m 7,7 km/h (2 Bft)
15.03.2014 19:02 9,8 C 8,3 C 74 % 1021,2 hPa 0,0 l/m 0 min 0 min 0,0 UV-I 0 W/m 0,0 km/h (0 Bft)
15.03.2014 19:06 9,8 C 8,3 C 74 % 1021,2 hPa 0,0 l/m 0 min 0 min 0,0 UV-I 0 W/m 7,7 km/h (2 Bft)
15.03.2014 19:08 9,8 C 8,3 C 73 % 1021,2 hPa 0,0 l/m 0 min 0 min 0,0 UV-I 0 W/m 7,7 km/h (2 Bft)
15.03.2014 19:10 9,8 C 8,3 C 73 % 1021,2 hPa 0,0 l/m 0 min 0 min 0,0 UV-I 0 W/m 5,1 km/h (1 Bft)
15.03.2014 19:12 9,8 C 8,3 C 73 % 1021,2 hPa 0,0 l/m 0 min 0 min 0,0 UV-I 0 W/m 15,4 km/h (3 Bft)
15.03.2014 19:14 9,8 C 8,3 C 73 % 1021,2 hPa 0,0 l/m 0 min 0 min 0,0 UV-I 0 W/m 7,7 km/h (2 Bft)
15.03.2014 19:16 9,8 C 8,3 C 73 % 1021,2 hPa 0,0 l/m 0 min 0 min 0,0 UV-I 0 W/m 2,6 km/h (1 Bft)
15.03.2014 19:18 9,8 C 8,3 C 73 % 1021,2 hPa 0,0 l/m 0 min 0 min 0,0 UV-I 0 W/m 0,0 km/h (0 Bft)
15.03.2014 19:20 9,8 C 8,3 C 73 % 1021,3 hPa 0,0 l/m 0 min 0 min 0,0 UV-I 0 W/m 23,2 km/h (4 Bft)
15.03.2014 19:22 9,8 C 8,3 C 73 % 1021,4 hPa 0,0 l/m 0 min 0 min 0,0 UV-I 0 W/m 15,4 km/h (3 Bft)
15.03.2014 19:24 9,8 C 8,3 C 73 % 1021,3 hPa 0,0 l/m 0 min 0 min 0,0 UV-I 0 W/m 5,1 km/h (1 Bft)
15.03.2014 19:26 9,8 C 8,3 C 73 % 1021,4 hPa 0,0 l/m 0 min 0 min 0,0 UV-I 0 W/m 12,9 km/h (3 Bft)
15.03.2014 19:28 9,8 C 8,3 C 74 % 1021,3 hPa 0,0 l/m 0 min 0 min 0,0 UV-I 0 W/m 2,6 km/h (1 Bft)
15.03.2014 19:30 9,7 C 8,3 C 74 % 1021,2 hPa 0,0 l/m 0 min 0 min 0,0 UV-I 0 W/m 0,0 km/h (0 Bft)
15.03.2014 19:32 9,7 C 8,3 C 74 % 1021,3 hPa 0,0 l/m 0 min 0 min 0,0 UV-I 0 W/m 0,0 km/h (0 Bft)
15.03.2014 19:34 9,7 C 8,3 C 74 % 1021,3 hPa 0,0 l/m 0 min 0 min 0,0 UV-I 0 W/m 10,3 km/h (2 Bft)
15.03.2014 19:36 9,7 C 8,3 C 74 % 1021,4 hPa 0,0 l/m 0 min 0 min 0,0 UV-I 0 W/m 5,1 km/h (1 Bft)
15.03.2014 19:38 9,7 C 8,3 C 74 % 1021,3 hPa 0,0 l/m 0 min 0 min 0,0 UV-I 0 W/m 2,6 km/h (1 Bft)
15.03.2014 19:40 9,7 C 8,3 C 74 % 1021,3 hPa 0,0 l/m 0 min 0 min 0,0 UV-I 0 W/m 12,9 km/h (3 Bft)
15.03.2014 19:42 9,7 C 8,3 C 75 % 1021,4 hPa 0,0 l/m 0 min 0 min 0,0 UV-I 0 W/m 7,7 km/h (2 Bft)
15.03.2014 19:44 9,7 C 8,3 C 75 % 1021,4 hPa 0,0 l/m 0 min 0 min 0,0 UV-I 0 W/m 7,7 km/h (2 Bft)
15.03.2014 19:46 9,7 C 8,3 C 75 % 1021,4 hPa 0,0 l/m 0 min 0 min 0,0 UV-I 0 W/m 7,7 km/h (2 Bft)
15.03.2014 19:48 9,7 C 8,3 C 75 % 1021,4 hPa 0,0 l/m 0 min 0 min 0,0 UV-I 0 W/m 10,3 km/h (2 Bft)
15.03.2014 19:50 9,7 C 8,3 C 75 % 1021,3 hPa 0,0 l/m 0 min 0 min 0,0 UV-I 0 W/m 12,9 km/h (3 Bft)
15.03.2014 19:52 9,7 C 8,3 C 75 % 1021,4 hPa 0,0 l/m 0 min 0 min 0,0 UV-I 0 W/m 12,9 km/h (3 Bft)
15.03.2014 19:54 9,7 C 8,3 C 75 % 1021,4 hPa 0,0 l/m 0 min 0 min 0,0 UV-I 0 W/m 5,1 km/h (1 Bft)
15.03.2014 19:56 9,7 C 8,3 C 75 % 1021,4 hPa 0,0 l/m 0 min 0 min 0,0 UV-I 0 W/m 7,7 km/h (2 Bft)
15.03.2014 19:58 9,7 C 8,3 C 75 % 1021,3 hPa 0,0 l/m 0 min 0 min 0,0 UV-I 0 W/m 12,9 km/h (3 Bft)
15.03.2014 20:00 9,7 C 8,3 C 75 % 1021,3 hPa 0,0 l/m 0 min 0 min 0,0 UV-I 0 W/m 20,6 km/h (4 Bft)
15.03.2014 20:02 9,7 C 8,3 C 75 % 1021,2 hPa 0,0 l/m 0 min 0 min 0,0 UV-I 0 W/m 20,6 km/h (4 Bft)
15.03.2014 20:06 9,7 C 8,3 C 76 % 1021,2 hPa 0,0 l/m 0 min 0 min 0,0 UV-I 0 W/m 18,0 km/h (3 Bft)
15.03.2014 20:08 9,6 C 8,3 C 76 % 1021,2 hPa 0,0 l/m 0 min 0 min 0,0 UV-I 0 W/m 12,9 km/h (3 Bft)
15.03.2014 20:10 9,6 C 8,3 C 76 % 1021,2 hPa 0,0 l/m 0 min 0 min 0,0 UV-I 0 W/m 15,4 km/h (3 Bft)
15.03.2014 20:12 9,6 C 8,3 C 76 % 1021,1 hPa 0,0 l/m 0 min 0 min 0,0 UV-I 0 W/m 18,0 km/h (3 Bft)
15.03.2014 20:14 9,6 C 8,3 C 76 % 1021,1 hPa 0,0 l/m 0 min 0 min 0,0 UV-I 0 W/m 7,7 km/h (2 Bft)
15.03.2014 20:16 9,6 C 8,3 C 76 % 1021,2 hPa 0,0 l/m 0 min 0 min 0,0 UV-I 0 W/m 7,7 km/h (2 Bft)
15.03.2014 20:18 9,6 C 8,3 C 76 % 1021,2 hPa 0,0 l/m 0 min 0 min 0,0 UV-I 0 W/m 23,2 km/h (4 Bft)
15.03.2014 20:20 9,6 C 8,3 C 76 % 1021,2 hPa 0,0 l/m 0 min 0 min 0,0 UV-I 0 W/m 18,0 km/h (3 Bft)
15.03.2014 20:22 9,6 C 8,3 C 77 % 1021,2 hPa 0,0 l/m 0 min 0 min 0,0 UV-I 0 W/m 10,3 km/h (2 Bft)
15.03.2014 20:24 9,5 C 8,3 C 77 % 1021,3 hPa 0,0 l/m 0 min 0 min 0,0 UV-I 0 W/m 18,0 km/h (3 Bft)
15.03.2014 20:26 9,5 C 8,3 C 77 % 1021,5 hPa 0,0 l/m 0 min 0 min 0,0 UV-I 0 W/m 12,9 km/h (3 Bft)
15.03.2014 20:28 9,5 C 8,3 C 77 % 1021,5 hPa 0,0 l/m 0 min 0 min 0,0 UV-I 0 W/m 12,9 km/h (3 Bft)
15.03.2014 20:30 9,5 C 8,3 C 77 % 1021,6 hPa 0,0 l/m 0 min 0 min 0,0 UV-I 0 W/m 7,7 km/h (2 Bft)
15.03.2014 20:32 9,5 C 8,3 C 77 % 1021,6 hPa 0,0 l/m 0 min 0 min 0,0 UV-I 0 W/m 10,3 km/h (2 Bft)
15.03.2014 20:34 9,5 C 8,3 C 77 % 1021,6 hPa 0,0 l/m 0 min 0 min 0,0 UV-I 0 W/m 7,7 km/h (2 Bft)
15.03.2014 20:36 9,5 C 8,3 C 77 % 1021,6 hPa 0,0 l/m 0 min 0 min 0,0 UV-I 0 W/m 12,9 km/h (3 Bft)
15.03.2014 20:38 9,4 C 7,8 C 78 % 1021,5 hPa 0,0 l/m 0 min 0 min 0,0 UV-I 0 W/m 15,4 km/h (3 Bft)
15.03.2014 20:40 9,4 C 8,3 C 78 % 1021,2 hPa 0,0 l/m 0 min 0 min 0,0 UV-I 0 W/m 12,9 km/h (3 Bft)
15.03.2014 20:42 9,4 C 8,3 C 77 % 1021,4 hPa 0,0 l/m 0 min 0 min 0,0 UV-I 0 W/m 12,9 km/h (3 Bft)
15.03.2014 20:44 9,4 C 7,8 C 78 % 1021,5 hPa 0,0 l/m 0 min 0 min 0,0 UV-I 0 W/m 10,3 km/h (2 Bft)
15.03.2014 20:46 9,4 C 7,8 C 78 % 1021,4 hPa 0,0 l/m 0 min 0 min 0,0 UV-I 0 W/m 12,9 km/h (3 Bft)
15.03.2014 20:48 9,4 C 7,8 C 78 % 1021,3 hPa 0,0 l/m 0 min 0 min 0,0 UV-I 0 W/m 15,4 km/h (3 Bft)
15.03.2014 20:50 9,4 C 7,8 C 78 % 1021,3 hPa 0,0 l/m 0 min 0 min 0,0 UV-I 0 W/m 15,4 km/h (3 Bft)
15.03.2014 20:52 9,3 C 7,8 C 78 % 1021,3 hPa 0,0 l/m 0 min 0 min 0,0 UV-I 0 W/m 20,6 km/h (4 Bft)
15.03.2014 20:54 9,3 C 7,8 C 78 % 1021,2 hPa 0,0 l/m 0 min 0 min 0,0 UV-I 0 W/m 15,4 km/h (3 Bft)
15.03.2014 20:56 9,3 C 7,8 C 78 % 1021,1 hPa 0,0 l/m 0 min 0 min 0,0 UV-I 0 W/m 23,2 km/h (4 Bft)
15.03.2014 20:58 9,3 C 7,8 C 78 % 1021,1 hPa 0,0 l/m 0 min 0 min 0,0 UV-I 0 W/m 7,7 km/h (2 Bft)
15.03.2014 21:00 9,3 C 7,8 C 78 % 1021,1 hPa 0,0 l/m 0 min 0 min 0,0 UV-I 0 W/m 10,3 km/h (2 Bft)
15.03.2014 21:02 9,3 C 7,8 C 78 % 1021,1 hPa 0,0 l/m 0 min 0 min 0,0 UV-I 0 W/m 15,4 km/h (3 Bft)
15.03.2014 21:06 9,2 C 7,8 C 78 % 1021,1 hPa 0,0 l/m 0 min 0 min 0,0 UV-I 0 W/m 15,4 km/h (3 Bft)
15.03.2014 21:08 9,2 C 7,8 C 78 % 1021,1 hPa 0,0 l/m 0 min 0 min 0,0 UV-I 0 W/m 15,4 km/h (3 Bft)
15.03.2014 21:10 9,2 C 7,8 C 78 % 1021,1 hPa 0,0 l/m 0 min 0 min 0,0 UV-I 0 W/m 15,4 km/h (3 Bft)
15.03.2014 21:12 9,2 C 7,8 C 78 % 1021,1 hPa 0,0 l/m 0 min 0 min 0,0 UV-I 0 W/m 15,4 km/h (3 Bft)
15.03.2014 21:14 9,2 C 7,8 C 79 % 1021,0 hPa 0,0 l/m 0 min 0 min 0,0 UV-I 0 W/m 12,9 km/h (3 Bft)
15.03.2014 21:16 9,2 C 7,8 C 79 % 1020,9 hPa 0,0 l/m 0 min 0 min 0,0 UV-I 0 W/m 7,7 km/h (2 Bft)
15.03.2014 21:18 9,2 C 7,8 C 79 % 1021,0 hPa 0,0 l/m 0 min 0 min 0,0 UV-I 0 W/m 15,4 km/h (3 Bft)
15.03.2014 21:20 9,2 C 7,8 C 79 % 1021,1 hPa 0,0 l/m 0 min 0 min 0,0 UV-I 0 W/m 18,0 km/h (3 Bft)
15.03.2014 21:22 9,2 C 7,8 C 78 % 1021,1 hPa 0,0 l/m 0 min 0 min 0,0 UV-I 0 W/m 12,9 km/h (3 Bft)
15.03.2014 21:24 9,2 C 7,8 C 79 % 1021,0 hPa 0,0 l/m 0 min 0 min 0,0 UV-I 0 W/m 15,4 km/h (3 Bft)
15.03.2014 21:26 9,2 C 7,8 C 79 % 1020,9 hPa 0,0 l/m 0 min 0 min 0,0 UV-I 0 W/m 10,3 km/h (2 Bft)
15.03.2014 21:28 9,2 C 7,8 C 79 % 1020,9 hPa 0,0 l/m 0 min 0 min 0,0 UV-I 0 W/m 7,7 km/h (2 Bft)
15.03.2014 21:30 9,1 C 7,8 C 79 % 1020,9 hPa 0,0 l/m 0 min 0 min 0,0 UV-I 0 W/m 12,9 km/h (3 Bft)
15.03.2014 21:32 9,1 C 7,8 C 79 % 1021,0 hPa 0,0 l/m 0 min 0 min 0,0 UV-I 0 W/m 7,7 km/h (2 Bft)
15.03.2014 21:34 9,1 C 7,8 C 79 % 1021,0 hPa 0,0 l/m 0 min 0 min 0,0 UV-I 0 W/m 10,3 km/h (2 Bft)
15.03.2014 21:36 9,1 C 7,8 C 79 % 1020,9 hPa 0,0 l/m 0 min 0 min 0,0 UV-I 0 W/m 10,3 km/h (2 Bft)
15.03.2014 21:38 9,1 C 7,8 C 79 % 1021,0 hPa 0,0 l/m 0 min 0 min 0,0 UV-I 0 W/m 15,4 km/h (3 Bft)
15.03.2014 21:40 9,1 C 7,8 C 79 % 1020,9 hPa 0,0 l/m 0 min 0 min 0,0 UV-I 0 W/m 20,6 km/h (4 Bft)
15.03.2014 21:42 9,1 C 7,8 C 79 % 1020,8 hPa 0,0 l/m 0 min 0 min 0,0 UV-I 0 W/m 7,7 km/h (2 Bft)
15.03.2014 21:44 9,1 C 7,8 C 80 % 1020,7 hPa 0,0 l/m 0 min 0 min 0,0 UV-I 0 W/m 12,9 km/h (3 Bft)
15.03.2014 21:46 9,1 C 7,8 C 80 % 1020,7 hPa 0,0 l/m 0 min 0 min 0,0 UV-I 0 W/m 18,0 km/h (3 Bft)
15.03.2014 21:48 9,2 C 7,8 C 80 % 1020,6 hPa 0,0 l/m 0 min 0 min 0,0 UV-I 0 W/m 7,7 km/h (2 Bft)
15.03.2014 21:50 9,1 C 7,8 C 80 % 1020,7 hPa 0,0 l/m 0 min 0 min 0,0 UV-I 0 W/m 7,7 km/h (2 Bft)
15.03.2014 21:52 9,1 C 7,8 C 80 % 1020,6 hPa 0,0 l/m 0 min 0 min 0,0 UV-I 0 W/m 20,6 km/h (4 Bft)
15.03.2014 21:54 9,1 C 7,8 C 80 % 1020,6 hPa 0,0 l/m 0 min 0 min 0,0 UV-I 0 W/m 7,7 km/h (2 Bft)
15.03.2014 21:56 9,1 C 7,8 C 80 % 1020,5 hPa 0,0 l/m 0 min 0 min 0,0 UV-I 0 W/m 25,7 km/h (4 Bft)
15.03.2014 21:58 9,2 C 7,8 C 80 % 1020,5 hPa 0,0 l/m 0 min 0 min 0,0 UV-I 0 W/m 10,3 km/h (2 Bft)
15.03.2014 22:00 9,2 C 7,8 C 80 % 1020,6 hPa 0,0 l/m 0 min 0 min 0,0 UV-I 0 W/m 18,0 km/h (3 Bft)
15.03.2014 22:02 9,1 C 7,8 C 80 % 1020,5 hPa 0,0 l/m 0 min 0 min 0,0 UV-I 0 W/m 10,3 km/h (2 Bft)
15.03.2014 22:06 9,1 C 7,8 C 79 % 1020,2 hPa 0,0 l/m 0 min 0 min 0,0 UV-I 0 W/m 23,2 km/h (4 Bft)
15.03.2014 22:08 9,1 C 7,8 C 79 % 1020,3 hPa 0,0 l/m 0 min 0 min 0,0 UV-I 0 W/m 15,4 km/h (3 Bft)
15.03.2014 22:10 9,1 C 7,8 C 79 % 1020,4 hPa 0,0 l/m 0 min 0 min 0,0 UV-I 0 W/m 10,3 km/h (2 Bft)
15.03.2014 22:12 9,1 C 7,8 C 79 % 1020,4 hPa 0,0 l/m 0 min 0 min 0,0 UV-I 0 W/m 12,9 km/h (3 Bft)
15.03.2014 22:14 9,1 C 7,8 C 79 % 1020,3 hPa 0,0 l/m 0 min 0 min 0,0 UV-I 0 W/m 23,2 km/h (4 Bft)
15.03.2014 22:16 9,1 C 7,8 C 79 % 1020,2 hPa 0,0 l/m 0 min 0 min 0,0 UV-I 0 W/m 12,9 km/h (3 Bft)
15.03.2014 22:18 9,1 C 7,8 C 79 % 1020,3 hPa 0,0 l/m 0 min 0 min 0,0 UV-I 0 W/m 20,6 km/h (4 Bft)
15.03.2014 22:20 9,1 C 7,8 C 79 % 1020,1 hPa 0,0 l/m 0 min 0 min 0,0 UV-I 0 W/m 15,4 km/h (3 Bft)
15.03.2014 22:22 9,1 C 7,8 C 79 % 1020,0 hPa 0,0 l/m 0 min 0 min 0,0 UV-I 0 W/m 15,4 km/h (3 Bft)
15.03.2014 22:24 9,1 C 7,8 C 79 % 1020,0 hPa 0,0 l/m 0 min 0 min 0,0 UV-I 0 W/m 18,0 km/h (3 Bft)
15.03.2014 22:26 9,1 C 7,8 C 79 % 1019,9 hPa 0,0 l/m 0 min 0 min 0,0 UV-I 0 W/m 15,4 km/h (3 Bft)
15.03.2014 22:28 9,1 C 7,8 C 79 % 1020,0 hPa 0,0 l/m 0 min 0 min 0,0 UV-I 0 W/m 12,9 km/h (3 Bft)
15.03.2014 22:30 9,1 C 7,8 C 79 % 1020,0 hPa 0,0 l/m 0 min 0 min 0,0 UV-I 0 W/m 18,0 km/h (3 Bft)
15.03.2014 22:32 9,1 C 7,8 C 79 % 1020,0 hPa 0,0 l/m 0 min 0 min 0,0 UV-I 0 W/m 20,6 km/h (4 Bft)
15.03.2014 22:34 9,1 C 7,8 C 79 % 1020,0 hPa 0,0 l/m 0 min 0 min 0,0 UV-I 0 W/m 12,9 km/h (3 Bft)
15.03.2014 22:36 9,1 C 7,8 C 79 % 1019,9 hPa 0,0 l/m 0 min 0 min 0,0 UV-I 0 W/m 12,9 km/h (3 Bft)
15.03.2014 22:38 9,2 C 7,8 C 79 % 1019,9 hPa 0,0 l/m 0 min 0 min 0,0 UV-I 0 W/m 18,0 km/h (3 Bft)
15.03.2014 22:40 9,2 C 7,8 C 79 % 1019,8 hPa 0,0 l/m 0 min 0 min 0,0 UV-I 0 W/m 12,9 km/h (3 Bft)
15.03.2014 22:42 9,2 C 7,8 C 79 % 1019,9 hPa 0,0 l/m 0 min 0 min 0,0 UV-I 0 W/m 12,9 km/h (3 Bft)
15.03.2014 22:44 9,2 C 7,8 C 79 % 1019,8 hPa 0,0 l/m 0 min 0 min 0,0 UV-I 0 W/m 12,9 km/h (3 Bft)
15.03.2014 22:46 9,2 C 7,8 C 79 % 1019,7 hPa 0,0 l/m 0 min 0 min 0,0 UV-I 0 W/m 20,6 km/h (4 Bft)
15.03.2014 22:48 9,2 C 7,8 C 79 % 1019,7 hPa 0,0 l/m 0 min 0 min 0,0 UV-I 0 W/m 23,2 km/h (4 Bft)
15.03.2014 22:50 9,2 C 7,8 C 79 % 1019,7 hPa 0,0 l/m 0 min 0 min 0,0 UV-I 0 W/m 7,7 km/h (2 Bft)
15.03.2014 22:52 9,2 C 7,8 C 79 % 1019,7 hPa 0,0 l/m 0 min 0 min 0,0 UV-I 0 W/m 10,3 km/h (2 Bft)
15.03.2014 22:54 9,2 C 7,8 C 79 % 1019,7 hPa 0,0 l/m 0 min 0 min 0,0 UV-I 0 W/m 5,1 km/h (1 Bft)
15.03.2014 22:56 9,2 C 7,8 C 79 % 1019,6 hPa 0,0 l/m 0 min 0 min 0,0 UV-I 0 W/m 15,4 km/h (3 Bft)
15.03.2014 22:58 9,3 C 7,8 C 79 % 1019,7 hPa 0,0 l/m 0 min 0 min 0,0 UV-I 0 W/m 12,9 km/h (3 Bft)
15.03.2014 23:00 9,3 C 7,8 C 79 % 1019,7 hPa 0,0 l/m 0 min 0 min 0,0 UV-I 0 W/m 12,9 km/h (3 Bft)
15.03.2014 23:02 9,3 C 7,8 C 79 % 1019,6 hPa 0,0 l/m 0 min 0 min 0,0 UV-I 0 W/m 10,3 km/h (2 Bft)
15.03.2014 23:06 9,3 C 7,8 C 79 % 1019,5 hPa 0,0 l/m 0 min 0 min 0,0 UV-I 0 W/m 12,9 km/h (3 Bft)
15.03.2014 23:08 9,3 C 7,8 C 79 % 1019,4 hPa 0,0 l/m 0 min 0 min 0,0 UV-I 0 W/m 10,3 km/h (2 Bft)
15.03.2014 23:10 9,3 C 7,8 C 79 % 1019,4 hPa 0,0 l/m 0 min 0 min 0,0 UV-I 0 W/m 20,6 km/h (4 Bft)
15.03.2014 23:12 9,4 C 8,3 C 79 % 1019,4 hPa 0,0 l/m 0 min 0 min 0,0 UV-I 0 W/m 20,6 km/h (4 Bft)
15.03.2014 23:14 9,4 C 8,3 C 78 % 1019,4 hPa 0,0 l/m 0 min 0 min 0,0 UV-I 0 W/m 25,7 km/h (4 Bft)
15.03.2014 23:16 9,4 C 8,3 C 79 % 1019,4 hPa 0,0 l/m 0 min 0 min 0,0 UV-I 0 W/m 12,9 km/h (3 Bft)
15.03.2014 23:18 9,4 C 8,3 C 79 % 1019,2 hPa 0,0 l/m 0 min 0 min 0,0 UV-I 0 W/m 10,3 km/h (2 Bft)
15.03.2014 23:20 9,4 C 8,3 C 79 % 1019,2 hPa 0,0 l/m 0 min 0 min 0,0 UV-I 0 W/m 7,7 km/h (2 Bft)
15.03.2014 23:22 9,4 C 8,3 C 79 % 1019,2 hPa 0,0 l/m 0 min 0 min 0,0 UV-I 0 W/m 20,6 km/h (4 Bft)
15.03.2014 23:24 9,4 C 8,3 C 79 % 1019,1 hPa 0,0 l/m 0 min 0 min 0,0 UV-I 0 W/m 15,4 km/h (3 Bft)
15.03.2014 23:26 9,4 C 8,3 C 79 % 1019,2 hPa 0,0 l/m 0 min 0 min 0,0 UV-I 0 W/m 12,9 km/h (3 Bft)
15.03.2014 23:28 9,5 C 8,3 C 78 % 1019,1 hPa 0,0 l/m 0 min 0 min 0,0 UV-I 0 W/m 15,4 km/h (3 Bft)
15.03.2014 23:30 9,5 C 8,3 C 78 % 1019,1 hPa 0,0 l/m 0 min 0 min 0,0 UV-I 0 W/m 12,9 km/h (3 Bft)
15.03.2014 23:32 9,5 C 8,3 C 78 % 1019,0 hPa 0,0 l/m 0 min 0 min 0,0 UV-I 0 W/m 15,4 km/h (3 Bft)
15.03.2014 23:34 9,5 C 8,3 C 78 % 1018,9 hPa 0,0 l/m 0 min 0 min 0,0 UV-I 0 W/m 12,9 km/h (3 Bft)
15.03.2014 23:36 9,5 C 8,3 C 78 % 1018,9 hPa 0,0 l/m 0 min 0 min 0,0 UV-I 0 W/m 15,4 km/h (3 Bft)
15.03.2014 23:38 9,5 C 8,3 C 78 % 1018,9 hPa 0,0 l/m 0 min 0 min 0,0 UV-I 0 W/m 10,3 km/h (2 Bft)
15.03.2014 23:40 9,5 C 8,3 C 78 % 1018,9 hPa 0,0 l/m 0 min 0 min 0,0 UV-I 0 W/m 15,4 km/h (3 Bft)
15.03.2014 23:42 9,5 C 8,3 C 78 % 1018,9 hPa 0,0 l/m 0 min 0 min 0,0 UV-I 0 W/m 15,4 km/h (3 Bft)
15.03.2014 23:44 9,5 C 8,3 C 78 % 1018,8 hPa 0,0 l/m 0 min 0 min 0,0 UV-I 0 W/m 12,9 km/h (3 Bft)
15.03.2014 23:46 9,5 C 8,3 C 78 % 1018,8 hPa 0,0 l/m 0 min 0 min 0,0 UV-I 0 W/m 23,2 km/h (4 Bft)
15.03.2014 23:48 9,5 C 8,3 C 78 % 1018,8 hPa 0,0 l/m 0 min 0 min 0,0 UV-I 0 W/m 12,9 km/h (3 Bft)
15.03.2014 23:50 9,5 C 8,3 C 78 % 1018,7 hPa 0,0 l/m 0 min 0 min 0,0 UV-I 0 W/m 15,4 km/h (3 Bft)
15.03.2014 23:52 9,6 C 8,3 C 78 % 1018,7 hPa 0,0 l/m 0 min 0 min 0,0 UV-I 0 W/m 15,4 km/h (3 Bft)
15.03.2014 23:54 9,6 C 8,3 C 78 % 1018,8 hPa 0,0 l/m 0 min 0 min 0,0 UV-I 0 W/m 10,3 km/h (2 Bft)
15.03.2014 23:56 9,6 C 8,3 C 78 % 1018,8 hPa 0,0 l/m 0 min 0 min 0,0 UV-I 0 W/m 12,9 km/h (3 Bft)
15.03.2014 23:58 9,6 C 8,3 C 79 % 1018,8 hPa 0,0 l/m 0 min 0 min 0,0 UV-I 0 W/m 12,9 km/h (3 Bft)
_ Min-Zeit 08:22 08:22 13:38 04:05 - - - - - 00:28
Minimum _ 7,7 C 6,1 C 60 % 1018,7 hPa - - - - - 0,0 km/h (0 Bft)
_ Max-Zeit 13:36 13:34 10:18 12:10 07:20 10:32 06:26 12:52 12:34 12:56
Maximum _ 12,7 C 12,2 C 97 % 1021,7 hPa 0,2 l/m 2 min 2 min 1,8 UV-I 693 W/m 41,2 km/h
NW (6 Bft)
Durchschnitt _ 9,5 C 8,2 C 80 % 1020,4 hPa #1,0 l/m #1:46 h #1:34 h 0,9 UV-I 166 W/m 14,2 km/h (3 Bft)
© 2014 W. Hausmann